GFSWCAN_prec_precacc24_030.txt.gz
Total_Precipitation_Accumulation
0.31 0.10 0.02 0.01 0.01 0.00 0.00 0.00 0.00 0.00 0.00 0.00 0.00 0.00 0.00 0.00 0.00 0.00 0.01 0.00 0.00 0.00 0.00 0.00 0.00 0.00 0.00 0.00 0.00 0.00 0.00 0.00 0.00 0.00 0.00 0.00 0.00 0.00 0.00 0.00 0.00 0.00 0.00 0.00 0.01 0.01 0.01 0.00 0.00 0.03 0.03 0.03 0.04 0.03
0.40 0.22 0.05 0.00 0.00 0.00 0.00 0.00 0.00 0.01 0.00 0.00 0.00 0.00 0.00 0.00 0.00 0.00 0.01 0.00 0.00 0.00 0.00 0.00 0.00 0.00 0.00 0.00 0.00 0.00 0.00 0.00 0.00 0.00 0.00 0.00 0.00 0.00 0.00 0.00 0.00 0.00 0.00 0.00 0.02 0.01 0.00 0.00 0.01 0.02 0.02 0.04 0.03 0.02
0.50 0.30 0.13 0.02 0.00 0.00 0.00 0.00 0.00 0.01 0.00 0.01 0.01 0.00 0.00 0.00 0.00 0.00 0.00 0.00 0.00 0.00 0.00 0.00 0.00 0.00 0.00 0.00 0.00 0.00 0.00 0.00 0.00 0.00 0.00 0.00 0.01 0.00 0.00 0.00 0.00 0.00 0.00 0.00 0.01 0.00 0.00 0.01 0.00 0.01 0.03 0.03 0.02 0.03
0.50 0.32 0.21 0.08 0.02 0.00 0.00 0.00 0.00 0.01 0.01 0.00 0.01 0.01 0.00 0.00 0.00 0.00 0.00 0.00 0.00 0.00 0.03 0.00 0.00 0.00 0.00 0.00 0.00 0.00 0.00 0.00 0.00 0.00 0.00 0.01 0.00 0.00 0.00 0.00 0.00 0.00 0.00 0.01 0.01 0.00 0.01 0.02 0.04 0.06 0.06 0.05 0.02 0.00
0.38 0.32 0.22 0.11 0.06 0.02 0.00 0.00 0.00 0.00 0.01 0.01 0.01 0.01 0.00 0.00 0.00 0.00 0.00 0.00 0.00 0.01 0.02 0.00 0.00 0.00 0.00 0.00 0.00 0.00 0.00 0.00 0.00 0.00 0.01 0.01 0.00 0.00 0.01 0.03 0.04 0.00 0.00 0.02 0.02 0.03 0.04 0.11 0.10 0.06 0.04 0.02 0.00 0.00
0.35 0.27 0.22 0.16 0.10 0.08 0.04 0.01 0.01 0.01 0.01 0.01 0.01 0.01 0.00 0.00 0.00 0.00 0.00 0.00 0.00 0.00 0.00 0.01 0.00 0.00 0.00 0.00 0.00 0.00 0.00 0.00 0.00 0.00 0.00 0.00 0.00 0.01 0.05 0.04 0.00 0.00 0.00 0.00 0.02 0.03 0.05 0.06 0.04 0.02 0.01 0.00 0.00 0.00
0.33 0.23 0.16 0.13 0.12 0.11 0.14 0.07 0.03 0.02 0.01 0.01 0.01 0.00 0.00 0.00 0.00 0.00 0.00 0.00 0.00 0.00 0.01 0.01 0.00 0.00 0.00 0.00 0.00 0.00 0.00 0.00 0.00 0.02 0.02 0.00 0.01 0.06 0.10 0.04 0.00 0.00 0.00 0.00 0.00 0.02 0.04 0.02 0.01 0.00 0.00 0.00 0.00 0.00
0.28 0.18 0.12 0.09 0.09 0.14 0.15 0.20 0.12 0.05 0.03 0.02 0.02 0.02 0.03 0.04 0.02 0.03 0.00 0.00 0.00 0.01 0.01 0.00 0.00 0.00 0.00 0.00 0.00 0.00 0.00 0.00 0.01 0.02 0.01 0.00 0.01 0.03 0.04 0.00 0.00 0.00 0.00 0.00 0.01 0.01 0.03 0.02 0.00 0.00 0.00 0.00 0.00 0.01
0.18 0.12 0.07 0.04 0.05 0.11 0.12 0.20 0.25 0.20 0.14 0.09 0.13 0.19 0.17 0.11 0.07 0.04 0.03 0.02 0.01 0.04 0.02 0.01 0.00 0.00 0.00 0.00 0.00 0.00 0.00 0.01 0.01 0.00 0.00 0.01 0.01 0.04 0.02 0.00 0.00 0.00 0.00 0.00 0.00 0.00 0.00 0.00 0.00 0.00 0.00 0.01 0.03 0.04
0.12 0.06 0.03 0.01 0.00 0.03 0.05 0.14 0.26 0.38 0.63 0.93 0.80 0.66 0.42 0.22 0.22 0.13 0.17 0.23 0.28 0.18 0.07 0.03 0.01 0.01 0.00 0.00 0.00 0.01 0.04 0.02 0.00 0.00 0.00 0.00 0.00 0.00 0.00 0.00 0.00 0.00 0.00 0.00 0.00 0.00 0.00 0.01 0.02 0.04 0.09 0.09 0.05 0.01
0.11 0.07 0.03 0.01 0.00 0.00 0.01 0.09 0.27 0.59 1.34 1.71 1.56 1.03 0.54 0.51 0.22 0.30 0.45 0.41 0.27 0.13 0.09 0.09 0.06 0.02 0.00 0.01 0.06 0.13 0.11 0.03 0.01 0.00 0.01 0.01 0.00 0.00 0.00 0.00 0.00 0.00 0.00 0.00 0.00 0.00 0.01 0.05 0.11 0.11 0.08 0.06 0.03 0.01
0.09 0.06 0.05 0.02 0.00 0.01 0.02 0.09 0.27 0.49 0.90 1.34 1.18 0.83 0.76 0.84 0.77 0.84 0.78 0.39 0.11 0.04 0.01 0.01 0.02 0.03 0.07 0.07 0.09 0.18 0.14 0.09 0.05 0.01 0.03 0.02 0.00 0.00 0.00 0.00 0.00 0.00 0.00 0.00 0.03 0.08 0.13 0.16 0.13 0.09 0.05 0.02 0.00 0.00
0.03 0.02 0.02 0.02 0.01 0.04 0.05 0.10 0.15 0.33 0.52 0.82 1.11 1.48 1.47 1.61 1.38 1.02 0.51 0.21 0.06 0.01 0.00 0.01 0.04 0.06 0.07 0.09 0.23 0.24 0.28 0.19 0.06 0.06 0.05 0.05 0.02 0.02 0.03 0.02 0.01 0.02 0.04 0.08 0.10 0.09 0.06 0.03 0.01 0.00 0.00 0.00 0.00 0.00
0.01 0.00 0.00 0.00 0.00 0.05 0.07 0.09 0.16 0.23 0.32 0.62 0.90 1.22 1.05 1.10 0.75 0.44 0.19 0.06 0.05 0.04 0.02 0.01 0.04 0.06 0.09 0.19 0.45 0.48 0.47 0.24 0.23 0.14 0.06 0.13 0.20 0.11 0.02 0.00 0.00 0.00 0.00 0.00 0.00 0.00 0.00 0.00 0.00 0.00 0.00 0.00 0.00 0.00
0.04 0.00 0.00 0.00 0.00 0.03 0.11 0.12 0.17 0.04 0.10 0.23 0.33 0.53 0.55 0.41 0.29 0.19 0.17 0.13 0.13 0.15 0.18 0.23 0.30 0.28 0.29 0.41 0.42 0.35 0.31 0.28 0.23 0.24 0.25 0.27 0.13 0.01 0.00 0.01 0.01 0.00 0.00 0.00 0.00 0.00 0.00 0.00 0.00 0.00 0.00 0.00 0.00 0.00
0.14 0.03 0.00 0.00 0.01 0.03 0.08 0.13 0.12 0.05 0.09 0.02 0.09 0.16 0.20 0.17 0.22 0.23 0.23 0.21 0.22 0.29 0.33 0.34 0.33 0.35 0.41 0.37 0.29 0.26 0.27 0.29 0.30 0.14 0.03 0.02 0.00 0.01 0.01 0.05 0.02 0.00 0.00 0.00 0.00 0.00 0.00 0.00 0.00 0.00 0.00 0.00 0.00 0.00
0.32 0.07 0.01 0.00 0.00 0.04 0.05 0.15 0.08 0.02 0.03 0.00 0.01 0.01 0.03 0.05 0.09 0.13 0.09 0.10 0.10 0.16 0.19 0.13 0.13 0.17 0.20 0.22 0.23 0.20 0.24 0.16 0.06 0.01 0.00 0.00 0.00 0.00 0.00 0.00 0.00 0.00 0.00 0.00 0.00 0.00 0.00 0.00 0.00 0.00 0.00 0.00 0.00 0.00
0.46 0.07 0.01 0.00 0.00 0.04 0.07 0.02 0.02 0.00 0.00 0.00 0.00 0.01 0.01 0.01 0.01 0.01 0.01 0.00 0.00 0.02 0.02 0.01 0.02 0.03 0.07 0.08 0.11 0.07 0.01 0.01 0.01 0.01 0.00 0.00 0.00 0.00 0.00 0.00 0.00 0.00 0.00 0.00 0.00 0.00 0.00 0.00 0.00 0.00 0.00 0.00 0.00 0.00
0.27 0.12 0.05 0.03 0.01 0.01 0.07 0.04 0.00 0.00 0.00 0.00 0.00 0.01 0.01 0.01 0.00 0.00 0.00 0.00 0.00 0.00 0.00 0.00 0.02 0.01 0.01 0.00 0.00 0.00 0.00 0.00 0.00 0.00 0.00 0.00 0.00 0.00 0.00 0.00 0.00 0.00 0.00 0.00 0.00 0.00 0.00 0.00 0.00 0.00 0.00 0.00 0.00 0.01
0.56 0.42 0.16 0.09 0.01 0.01 0.00 0.01 0.00 0.00 0.00 0.00 0.00 0.00 0.00 0.00 0.01 0.01 0.01 0.00 0.00 0.00 0.01 0.01 0.00 0.00 0.00 0.00 0.00 0.00 0.00 0.00 0.00 0.00 0.00 0.00 0.00 0.00 0.00 0.00 0.00 0.00 0.00 0.00 0.00 0.00 0.00 0.00 0.00 0.01 0.02 0.03 0.04 0.03
0.59 0.60 0.33 0.14 0.04 0.00 0.00 0.00 0.00 0.00 0.00 0.00 0.00 0.00 0.00 0.01 0.00 0.00 0.00 0.00 0.01 0.02 0.01 0.00 0.00 0.00 0.00 0.00 0.00 0.00 0.00 0.00 0.00 0.00 0.00 0.00 0.00 0.00 0.00 0.00 0.00 0.00 0.00 0.00 0.00 0.00 0.01 0.02 0.02 0.03 0.06 0.03 0.02 0.02
0.35 0.41 0.38 0.19 0.14 0.01 0.00 0.00 0.00 0.00 0.00 0.00 0.00 0.00 0.00 0.01 0.01 0.01 0.00 0.00 0.00 0.00 0.00 0.00 0.00 0.00 0.00 0.00 0.00 0.00 0.00 0.00 0.00 0.00 0.00 0.00 0.00 0.00 0.00 0.00 0.00 0.00 0.00 0.02 0.03 0.01 0.01 0.02 0.03 0.03 0.02 0.01 0.01 0.03
0.37 0.41 0.41 0.34 0.19 0.05 0.01 0.00 0.00 0.00 0.00 0.01 0.01 0.00 0.00 0.00 0.01 0.00 0.00 0.00 0.00 0.00 0.00 0.00 0.00 0.00 0.00 0.00 0.00 0.00 0.00 0.00 0.00 0.00 0.00 0.00 0.00 0.00 0.01 0.01 0.02 0.03 0.02 0.01 0.04 0.03 0.03 0.03 0.02 0.01 0.01 0.03 0.06 0.05
0.37 0.38 0.35 0.31 0.18 0.11 0.04 0.01 0.00 0.00 0.00 0.00 0.00 0.00 0.00 0.00 0.01 0.01 0.00 0.01 0.01 0.00 0.00 0.00 0.00 0.00 0.00 0.00 0.00 0.00 0.00 0.00 0.00 0.00 0.00 0.00 0.01 0.01 0.02 0.02 0.02 0.03 0.03 0.03 0.03 0.02 0.01 0.01 0.02 0.04 0.05 0.06 0.04 0.05
0.30 0.28 0.24 0.16 0.06 0.03 0.02 0.02 0.02 0.01 0.00 0.00 0.00 0.00 0.00 0.00 0.00 0.00 0.01 0.04 0.04 0.03 0.01 0.01 0.01 0.01 0.01 0.01 0.01 0.00 0.00 0.00 0.00 0.00 0.01 0.02 0.02 0.02 0.01 0.02 0.02 0.03 0.04 0.03 0.02 0.03 0.03 0.05 0.06 0.05 0.04 0.05 0.09 0.10
0.15 0.09 0.08 0.05 0.02 0.03 0.02 0.02 0.02 0.02 0.01 0.03 0.04 0.03 0.01 0.01 0.01 0.01 0.03 0.07 0.05 0.04 0.03 0.02 0.02 0.02 0.02 0.02 0.02 0.01 0.00 0.00 0.00 0.00 0.01 0.02 0.02 0.03 0.03 0.03 0.02 0.02 0.03 0.05 0.08 0.09 0.06 0.03 0.04 0.06 0.07 0.08 0.10 0.12
0.06 0.03 0.00 0.01 0.02 0.06 0.07 0.05 0.07 0.08 0.07 0.08 0.05 0.04 0.05 0.04 0.02 0.04 0.04 0.05 0.05 0.05 0.02 0.00 0.00 0.01 0.01 0.02 0.00 0.00 0.00 0.00 0.00 0.01 0.01 0.03 0.03 0.04 0.08 0.14 0.15 0.12 0.07 0.07 0.10 0.12 0.13 0.11 0.10 0.09 0.09 0.08 0.10 0.17
0.02 0.04 0.06 0.09 0.13 0.12 0.12 0.11 0.11 0.08 0.07 0.07 0.06 0.06 0.05 0.02 0.03 0.05 0.05 0.06 0.05 0.04 0.02 0.01 0.00 0.00 0.01 0.01 0.01 0.01 0.00 0.00 0.00 0.00 0.01 0.04 0.05 0.08 0.08 0.09 0.10 0.08 0.07 0.09 0.10 0.10 0.13 0.15 0.12 0.10 0.10 0.14 0.16 0.13
0.07 0.07 0.07 0.08 0.09 0.06 0.05 0.05 0.06 0.06 0.06 0.05 0.02 0.01 0.02 0.02 0.05 0.05 0.05 0.04 0.02 0.01 0.01 0.01 0.01 0.01 0.01 0.01 0.01 0.02 0.01 0.01 0.02 0.02 0.01 0.02 0.07 0.09 0.06 0.07 0.07 0.07 0.07 0.06 0.07 0.11 0.12 0.11 0.10 0.12 0.19 0.19 0.14 0.13
0.04 0.03 0.02 0.02 0.01 0.01 0.02 0.02 0.03 0.02 0.02 0.01 0.00 0.01 0.02 0.04 0.06 0.05 0.03 0.02 0.02 0.03 0.04 0.03 0.03 0.01 0.02 0.01 0.01 0.03 0.07 0.05 0.07 0.10 0.09 0.09 0.09 0.08 0.07 0.06 0.06 0.07 0.07 0.07 0.06 0.05 0.05 0.04 0.05 0.12 0.10 0.07 0.09 0.10
0.01 0.01 0.01 0.01 0.01 0.02 0.01 0.00 0.00 0.01 0.02 0.02 0.01 0.02 0.06 0.06 0.06 0.04 0.03 0.04 0.02 0.01 0.01 0.01 0.01 0.02 0.02 0.03 0.05 0.05 0.07 0.07 0.07 0.09 0.09 0.09 0.08 0.07 0.06 0.05 0.04 0.04 0.05 0.05 0.05 0.06 0.07 0.06 0.09 0.10 0.07 0.05 0.07 0.07
0.01 0.01 0.01 0.01 0.02 0.01 0.00 0.00 0.00 0.00 0.01 0.01 0.03 0.02 0.04 0.03 0.03 0.04 0.04 0.02 0.01 0.02 0.03 0.04 0.04 0.05 0.08 0.09 0.09 0.09 0.10 0.08 0.06 0.07 0.07 0.08 0.07 0.06 0.04 0.03 0.04 0.04 0.05 0.05 0.06 0.07 0.08 0.07 0.08 0.06 0.08 0.06 0.06 0.06
0.01 0.01 0.01 0.01 0.01 0.01 0.00 0.00 0.00 0.00 0.01 0.02 0.05 0.05 0.04 0.04 0.04 0.05 0.04 0.04 0.06 0.06 0.06 0.06 0.07 0.08 0.11 0.09 0.07 0.08 0.06 0.06 0.06 0.06 0.06 0.06 0.05 0.04 0.03 0.03 0.03 0.04 0.04 0.05 0.06 0.07 0.07 0.06 0.06 0.06 0.06 0.06 0.05 0.04

GFSWCAN_prec_precacc24_033.txt.gz
Total_Precipitation_Accumulation
0.31 0.11 0.02 0.00 0.00 0.00 0.00 0.00 0.00 0.00 0.00 0.00 0.00 0.00 0.00 0.00 0.00 0.00 0.01 0.00 0.00 0.00 0.00 0.00 0.00 0.00 0.00 0.00 0.00 0.00 0.00 0.00 0.00 0.00 0.00 0.00 0.00 0.00 0.00 0.00 0.00 0.00 0.00 0.00 0.01 0.01 0.01 0.00 0.00 0.03 0.02 0.01 0.04 0.03
0.38 0.22 0.05 0.00 0.00 0.00 0.00 0.00 0.00 0.01 0.00 0.00 0.00 0.00 0.00 0.00 0.00 0.00 0.03 0.02 0.00 0.00 0.00 0.00 0.00 0.00 0.00 0.00 0.00 0.00 0.00 0.00 0.00 0.00 0.00 0.00 0.00 0.00 0.00 0.00 0.00 0.00 0.00 0.00 0.01 0.00 0.00 0.00 0.01 0.01 0.01 0.03 0.03 0.01
0.49 0.27 0.12 0.01 0.00 0.00 0.00 0.00 0.01 0.02 0.01 0.01 0.01 0.00 0.00 0.00 0.00 0.00 0.02 0.01 0.00 0.00 0.00 0.00 0.00 0.00 0.00 0.00 0.00 0.00 0.00 0.00 0.00 0.00 0.00 0.00 0.01 0.00 0.00 0.00 0.00 0.00 0.00 0.00 0.00 0.00 0.00 0.01 0.00 0.01 0.00 0.01 0.01 0.01
0.50 0.31 0.18 0.06 0.01 0.00 0.00 0.00 0.01 0.02 0.01 0.00 0.01 0.01 0.00 0.00 0.01 0.00 0.00 0.00 0.00 0.00 0.03 0.00 0.00 0.00 0.00 0.00 0.00 0.00 0.00 0.00 0.00 0.00 0.00 0.01 0.00 0.00 0.00 0.00 0.00 0.00 0.00 0.00 0.01 0.00 0.00 0.01 0.00 0.01 0.02 0.03 0.02 0.00
0.38 0.30 0.18 0.08 0.03 0.00 0.00 0.00 0.01 0.01 0.01 0.02 0.02 0.02 0.00 0.00 0.01 0.01 0.00 0.00 0.00 0.01 0.02 0.00 0.00 0.00 0.00 0.00 0.00 0.00 0.00 0.00 0.00 0.00 0.01 0.01 0.00 0.00 0.00 0.00 0.00 0.00 0.00 0.01 0.02 0.02 0.02 0.05 0.05 0.03 0.04 0.02 0.00 0.00
0.34 0.25 0.16 0.10 0.05 0.01 0.01 0.00 0.01 0.01 0.01 0.01 0.01 0.01 0.00 0.00 0.01 0.01 0.00 0.00 0.00 0.00 0.00 0.01 0.00 0.00 0.00 0.00 0.00 0.00 0.00 0.00 0.00 0.00 0.00 0.00 0.00 0.01 0.01 0.01 0.00 0.00 0.00 0.00 0.01 0.01 0.02 0.04 0.04 0.02 0.01 0.00 0.00 0.00
0.33 0.23 0.14 0.08 0.06 0.04 0.02 0.02 0.01 0.01 0.01 0.01 0.01 0.01 0.00 0.00 0.00 0.00 0.00 0.00 0.00 0.00 0.01 0.01 0.00 0.00 0.00 0.00 0.00 0.00 0.00 0.00 0.00 0.02 0.01 0.00 0.00 0.03 0.03 0.01 0.00 0.00 0.00 0.00 0.00 0.02 0.04 0.02 0.01 0.00 0.00 0.00 0.00 0.00
0.28 0.18 0.12 0.07 0.04 0.06 0.04 0.04 0.03 0.02 0.01 0.01 0.01 0.01 0.01 0.00 0.01 0.02 0.00 0.00 0.00 0.01 0.01 0.00 0.00 0.00 0.00 0.00 0.00 0.00 0.00 0.00 0.01 0.02 0.01 0.01 0.01 0.02 0.01 0.00 0.00 0.00 0.00 0.00 0.01 0.01 0.03 0.02 0.00 0.00 0.00 0.00 0.00 0.01
0.18 0.13 0.08 0.04 0.03 0.07 0.05 0.07 0.09 0.07 0.09 0.06 0.09 0.11 0.09 0.04 0.03 0.02 0.00 0.00 0.00 0.04 0.02 0.01 0.00 0.00 0.00 0.00 0.00 0.00 0.00 0.01 0.01 0.01 0.01 0.01 0.01 0.01 0.00 0.00 0.00 0.00 0.00 0.00 0.00 0.00 0.00 0.00 0.00 0.00 0.00 0.01 0.04 0.09
0.12 0.09 0.07 0.02 0.02 0.05 0.05 0.06 0.11 0.18 0.40 0.69 0.55 0.41 0.20 0.10 0.11 0.04 0.05 0.05 0.05 0.04 0.03 0.01 0.00 0.00 0.00 0.00 0.00 0.00 0.00 0.01 0.00 0.00 0.00 0.00 0.00 0.00 0.00 0.00 0.00 0.00 0.00 0.00 0.00 0.00 0.00 0.01 0.02 0.04 0.10 0.12 0.10 0.09
0.12 0.08 0.03 0.01 0.01 0.02 0.07 0.06 0.14 0.38 1.05 1.40 1.22 0.71 0.33 0.35 0.10 0.14 0.26 0.24 0.13 0.05 0.03 0.03 0.03 0.01 0.00 0.00 0.01 0.04 0.03 0.01 0.01 0.00 0.01 0.01 0.00 0.00 0.00 0.00 0.00 0.00 0.00 0.00 0.00 0.00 0.01 0.06 0.13 0.15 0.14 0.11 0.08 0.03
0.14 0.09 0.07 0.03 0.01 0.01 0.04 0.11 0.21 0.38 0.74 1.07 0.91 0.55 0.50 0.61 0.56 0.65 0.61 0.30 0.10 0.04 0.01 0.01 0.01 0.02 0.05 0.06 0.07 0.12 0.11 0.07 0.04 0.01 0.02 0.02 0.00 0.00 0.00 0.00 0.00 0.00 0.00 0.00 0.03 0.09 0.14 0.17 0.16 0.11 0.06 0.02 0.00 0.00
0.16 0.12 0.10 0.07 0.04 0.03 0.03 0.06 0.13 0.28 0.46 0.76 1.05 1.33 1.32 1.51 1.33 1.00 0.49 0.19 0.06 0.01 0.00 0.00 0.03 0.05 0.06 0.08 0.20 0.22 0.27 0.18 0.05 0.07 0.06 0.06 0.02 0.03 0.04 0.02 0.01 0.02 0.04 0.08 0.10 0.09 0.06 0.03 0.01 0.00 0.00 0.00 0.00 0.00
0.09 0.10 0.10 0.08 0.07 0.09 0.07 0.07 0.15 0.22 0.30 0.59 0.87 1.18 1.03 1.08 0.75 0.44 0.19 0.06 0.05 0.04 0.02 0.01 0.04 0.05 0.08 0.17 0.45 0.51 0.50 0.25 0.25 0.15 0.07 0.16 0.23 0.12 0.02 0.00 0.00 0.00 0.00 0.00 0.00 0.00 0.00 0.00 0.00 0.00 0.00 0.00 0.00 0.00
0.03 0.01 0.03 0.04 0.04 0.08 0.15 0.15 0.18 0.04 0.10 0.23 0.33 0.55 0.55 0.42 0.29 0.19 0.17 0.13 0.13 0.15 0.18 0.23 0.29 0.27 0.29 0.41 0.44 0.37 0.33 0.29 0.24 0.24 0.26 0.28 0.15 0.01 0.01 0.01 0.01 0.00 0.00 0.00 0.00 0.00 0.00 0.00 0.00 0.00 0.00 0.00 0.00 0.00
0.07 0.03 0.00 0.00 0.01 0.03 0.08 0.13 0.12 0.06 0.13 0.05 0.11 0.17 0.21 0.18 0.24 0.25 0.25 0.22 0.24 0.29 0.35 0.37 0.34 0.35 0.42 0.38 0.29 0.27 0.27 0.29 0.31 0.15 0.04 0.02 0.01 0.01 0.02 0.05 0.02 0.00 0.00 0.00 0.00 0.00 0.00 0.00 0.00 0.00 0.00 0.00 0.00 0.00
0.16 0.06 0.01 0.00 0.00 0.04 0.05 0.15 0.08 0.02 0.05 0.01 0.02 0.02 0.04 0.06 0.11 0.15 0.12 0.12 0.12 0.15 0.19 0.14 0.13 0.17 0.20 0.22 0.23 0.20 0.24 0.16 0.06 0.01 0.00 0.00 0.00 0.00 0.00 0.00 0.00 0.00 0.00 0.00 0.00 0.00 0.00 0.00 0.00 0.00 0.00 0.00 0.00 0.00
0.24 0.05 0.00 0.00 0.00 0.04 0.07 0.02 0.02 0.00 0.00 0.01 0.01 0.02 0.01 0.01 0.02 0.01 0.01 0.00 0.00 0.02 0.02 0.01 0.02 0.03 0.07 0.08 0.11 0.07 0.01 0.01 0.01 0.01 0.00 0.00 0.00 0.00 0.00 0.00 0.00 0.00 0.00 0.00 0.00 0.00 0.00 0.00 0.00 0.00 0.00 0.00 0.00 0.00
0.11 0.05 0.01 0.01 0.01 0.01 0.07 0.04 0.00 0.00 0.01 0.01 0.01 0.01 0.02 0.02 0.01 0.00 0.00 0.00 0.00 0.00 0.00 0.00 0.02 0.01 0.01 0.00 0.00 0.00 0.00 0.00 0.00 0.00 0.00 0.00 0.00 0.00 0.00 0.00 0.00 0.00 0.00 0.00 0.00 0.00 0.00 0.00 0.00 0.00 0.00 0.00 0.00 0.01
0.27 0.25 0.09 0.07 0.01 0.01 0.00 0.01 0.00 0.00 0.00 0.01 0.01 0.01 0.01 0.01 0.01 0.01 0.01 0.00 0.00 0.00 0.01 0.01 0.00 0.00 0.00 0.00 0.00 0.00 0.00 0.00 0.00 0.00 0.00 0.00 0.00 0.00 0.00 0.00 0.00 0.00 0.00 0.00 0.00 0.00 0.00 0.00 0.00 0.01 0.02 0.02 0.03 0.03
0.44 0.48 0.29 0.14 0.04 0.00 0.00 0.00 0.00 0.00 0.00 0.00 0.00 0.00 0.00 0.01 0.00 0.00 0.00 0.00 0.01 0.02 0.00 0.00 0.00 0.00 0.00 0.00 0.00 0.00 0.00 0.00 0.00 0.00 0.00 0.00 0.00 0.00 0.00 0.00 0.00 0.00 0.00 0.00 0.00 0.00 0.01 0.02 0.02 0.03 0.06 0.02 0.02 0.02
0.33 0.40 0.38 0.19 0.14 0.01 0.00 0.00 0.00 0.00 0.00 0.00 0.00 0.00 0.00 0.01 0.01 0.01 0.00 0.00 0.00 0.00 0.00 0.00 0.00 0.00 0.00 0.00 0.00 0.00 0.00 0.00 0.00 0.00 0.00 0.00 0.00 0.00 0.00 0.00 0.00 0.00 0.00 0.02 0.03 0.01 0.01 0.02 0.03 0.03 0.02 0.01 0.01 0.03
0.37 0.41 0.41 0.34 0.19 0.05 0.01 0.00 0.00 0.00 0.00 0.01 0.01 0.00 0.00 0.00 0.01 0.00 0.00 0.00 0.00 0.01 0.01 0.00 0.01 0.01 0.02 0.01 0.00 0.00 0.00 0.00 0.00 0.00 0.00 0.00 0.00 0.00 0.01 0.01 0.02 0.03 0.02 0.01 0.04 0.03 0.03 0.03 0.02 0.01 0.01 0.03 0.05 0.05
0.37 0.37 0.34 0.31 0.18 0.11 0.04 0.01 0.00 0.00 0.00 0.00 0.00 0.00 0.00 0.00 0.01 0.01 0.01 0.02 0.03 0.01 0.01 0.02 0.02 0.02 0.01 0.00 0.00 0.00 0.00 0.00 0.00 0.00 0.00 0.00 0.01 0.01 0.02 0.02 0.02 0.03 0.03 0.03 0.03 0.02 0.01 0.01 0.02 0.04 0.05 0.05 0.04 0.04
0.29 0.27 0.24 0.16 0.06 0.03 0.02 0.01 0.02 0.01 0.01 0.00 0.00 0.00 0.00 0.00 0.01 0.01 0.01 0.05 0.05 0.05 0.04 0.03 0.03 0.03 0.03 0.03 0.03 0.01 0.00 0.00 0.00 0.00 0.01 0.02 0.02 0.02 0.01 0.02 0.02 0.03 0.04 0.03 0.02 0.03 0.03 0.05 0.06 0.05 0.04 0.05 0.08 0.09
0.15 0.09 0.08 0.05 0.02 0.03 0.02 0.02 0.02 0.02 0.01 0.03 0.05 0.04 0.02 0.03 0.02 0.02 0.05 0.09 0.07 0.07 0.06 0.05 0.04 0.03 0.03 0.03 0.03 0.02 0.00 0.00 0.00 0.00 0.01 0.02 0.02 0.03 0.03 0.03 0.02 0.02 0.03 0.05 0.08 0.08 0.05 0.03 0.04 0.06 0.07 0.07 0.10 0.11
0.06 0.03 0.00 0.01 0.02 0.07 0.07 0.05 0.08 0.08 0.07 0.09 0.06 0.05 0.07 0.07 0.04 0.06 0.06 0.08 0.08 0.09 0.06 0.03 0.02 0.02 0.02 0.02 0.00 0.00 0.00 0.00 0.00 0.01 0.01 0.03 0.03 0.04 0.07 0.12 0.14 0.11 0.06 0.06 0.09 0.11 0.13 0.11 0.09 0.08 0.09 0.07 0.10 0.17
0.02 0.04 0.06 0.08 0.13 0.13 0.12 0.11 0.13 0.10 0.09 0.10 0.08 0.08 0.09 0.05 0.05 0.06 0.06 0.08 0.07 0.05 0.03 0.01 0.01 0.00 0.01 0.01 0.01 0.01 0.00 0.00 0.00 0.00 0.01 0.04 0.05 0.06 0.06 0.07 0.08 0.06 0.06 0.08 0.09 0.10 0.12 0.13 0.11 0.09 0.10 0.13 0.16 0.14
0.07 0.07 0.07 0.09 0.10 0.07 0.06 0.06 0.07 0.08 0.09 0.08 0.05 0.03 0.03 0.03 0.06 0.06 0.06 0.05 0.04 0.02 0.01 0.01 0.02 0.01 0.01 0.01 0.01 0.02 0.01 0.01 0.01 0.01 0.00 0.02 0.07 0.08 0.05 0.06 0.06 0.06 0.06 0.06 0.06 0.10 0.10 0.10 0.09 0.11 0.18 0.18 0.14 0.13
0.04 0.04 0.02 0.02 0.01 0.02 0.03 0.03 0.03 0.03 0.02 0.02 0.01 0.01 0.02 0.05 0.07 0.07 0.04 0.02 0.02 0.03 0.05 0.03 0.03 0.01 0.01 0.01 0.01 0.02 0.06 0.03 0.04 0.06 0.06 0.06 0.08 0.07 0.06 0.06 0.05 0.06 0.06 0.06 0.06 0.05 0.05 0.04 0.05 0.12 0.10 0.07 0.09 0.10
0.01 0.01 0.00 0.00 0.02 0.02 0.01 0.00 0.01 0.03 0.04 0.03 0.02 0.02 0.07 0.06 0.07 0.05 0.04 0.05 0.03 0.01 0.01 0.01 0.01 0.02 0.01 0.02 0.03 0.03 0.04 0.04 0.04 0.06 0.06 0.06 0.07 0.06 0.05 0.04 0.04 0.04 0.05 0.05 0.05 0.06 0.06 0.06 0.09 0.10 0.07 0.05 0.07 0.07
0.01 0.01 0.01 0.01 0.02 0.01 0.00 0.00 0.00 0.00 0.01 0.02 0.03 0.02 0.05 0.03 0.03 0.04 0.04 0.02 0.01 0.01 0.01 0.01 0.02 0.03 0.04 0.05 0.05 0.05 0.06 0.05 0.04 0.04 0.05 0.06 0.06 0.05 0.04 0.03 0.04 0.04 0.05 0.05 0.06 0.07 0.08 0.07 0.08 0.06 0.08 0.06 0.06 0.06
0.01 0.01 0.01 0.01 0.01 0.01 0.01 0.00 0.00 0.00 0.01 0.03 0.05 0.05 0.05 0.04 0.04 0.05 0.04 0.01 0.02 0.02 0.01 0.01 0.02 0.03 0.05 0.04 0.03 0.04 0.03 0.03 0.03 0.03 0.04 0.04 0.04 0.03 0.03 0.03 0.03 0.04 0.04 0.05 0.06 0.07 0.07 0.06 0.06 0.06 0.06 0.06 0.05 0.04

GFSWCAN_prec_precacc24_036.txt.gz
Total_Precipitation_Accumulation
0.30 0.25 0.17 0.07 0.02 0.01 0.00 0.00 0.00 0.00 0.00 0.00 0.00 0.00 0.00 0.00 0.00 0.02 0.01 0.01 0.00 0.00 0.00 0.00 0.00 0.00 0.00 0.00 0.00 0.00 0.00 0.00 0.00 0.00 0.00 0.00 0.00 0.00 0.00 0.00 0.00 0.00 0.00 0.00 0.00 0.00 0.00 0.00 0.00 0.02 0.01 0.01 0.01 0.00
0.49 0.23 0.07 0.02 0.00 0.00 0.00 0.00 0.00 0.01 0.00 0.00 0.00 0.00 0.00 0.00 0.01 0.02 0.04 0.04 0.00 0.00 0.00 0.00 0.00 0.00 0.00 0.00 0.00 0.00 0.00 0.00 0.00 0.00 0.00 0.00 0.00 0.00 0.00 0.00 0.00 0.00 0.00 0.00 0.00 0.00 0.00 0.00 0.00 0.01 0.01 0.02 0.01 0.00
0.49 0.23 0.09 0.01 0.00 0.00 0.00 0.00 0.02 0.03 0.01 0.01 0.01 0.00 0.00 0.00 0.01 0.01 0.02 0.04 0.01 0.01 0.00 0.00 0.00 0.00 0.00 0.00 0.00 0.00 0.00 0.00 0.00 0.00 0.00 0.00 0.01 0.00 0.00 0.00 0.00 0.00 0.00 0.00 0.00 0.00 0.00 0.00 0.00 0.01 0.00 0.00 0.01 0.01
0.50 0.30 0.16 0.05 0.01 0.00 0.00 0.01 0.02 0.02 0.02 0.01 0.01 0.01 0.00 0.00 0.01 0.01 0.01 0.03 0.03 0.02 0.04 0.00 0.00 0.00 0.00 0.00 0.00 0.00 0.00 0.00 0.00 0.00 0.00 0.01 0.01 0.00 0.00 0.00 0.00 0.00 0.00 0.00 0.01 0.00 0.00 0.01 0.00 0.00 0.01 0.02 0.01 0.00
0.38 0.30 0.18 0.08 0.03 0.01 0.00 0.01 0.01 0.03 0.07 0.03 0.02 0.02 0.00 0.01 0.02 0.01 0.00 0.00 0.01 0.03 0.03 0.01 0.01 0.00 0.00 0.00 0.00 0.00 0.00 0.00 0.00 0.00 0.01 0.01 0.00 0.00 0.00 0.00 0.00 0.00 0.00 0.01 0.01 0.01 0.01 0.04 0.03 0.01 0.02 0.01 0.00 0.00
0.34 0.25 0.17 0.10 0.05 0.01 0.00 0.01 0.01 0.06 0.05 0.03 0.01 0.01 0.01 0.03 0.03 0.01 0.00 0.00 0.00 0.00 0.00 0.02 0.01 0.00 0.00 0.00 0.00 0.00 0.00 0.00 0.00 0.00 0.00 0.00 0.00 0.01 0.00 0.00 0.00 0.00 0.00 0.00 0.01 0.01 0.01 0.03 0.03 0.02 0.01 0.00 0.00 0.00
0.34 0.23 0.15 0.08 0.06 0.03 0.01 0.00 0.02 0.06 0.04 0.03 0.03 0.03 0.04 0.05 0.03 0.01 0.00 0.00 0.00 0.00 0.01 0.01 0.00 0.00 0.01 0.00 0.00 0.00 0.00 0.00 0.00 0.02 0.01 0.00 0.00 0.02 0.01 0.00 0.00 0.00 0.00 0.00 0.00 0.01 0.04 0.02 0.01 0.00 0.00 0.00 0.00 0.00
0.28 0.19 0.12 0.08 0.04 0.04 0.01 0.00 0.01 0.01 0.02 0.03 0.03 0.03 0.01 0.02 0.02 0.02 0.00 0.00 0.00 0.01 0.01 0.00 0.00 0.00 0.00 0.01 0.00 0.00 0.00 0.00 0.01 0.02 0.01 0.01 0.01 0.02 0.00 0.00 0.00 0.00 0.00 0.00 0.01 0.01 0.03 0.02 0.00 0.00 0.00 0.00 0.00 0.01
0.18 0.13 0.08 0.04 0.03 0.06 0.01 0.00 0.00 0.01 0.01 0.01 0.02 0.04 0.02 0.01 0.02 0.02 0.00 0.00 0.00 0.04 0.02 0.01 0.00 0.00 0.00 0.00 0.00 0.00 0.00 0.01 0.01 0.01 0.01 0.01 0.01 0.00 0.00 0.00 0.00 0.00 0.00 0.00 0.00 0.00 0.00 0.00 0.00 0.00 0.01 0.01 0.06 0.15
0.12 0.10 0.08 0.02 0.02 0.05 0.04 0.00 0.00 0.03 0.17 0.32 0.28 0.19 0.07 0.06 0.05 0.01 0.01 0.01 0.00 0.00 0.00 0.00 0.00 0.00 0.00 0.00 0.00 0.00 0.00 0.00 0.00 0.00 0.00 0.00 0.00 0.00 0.00 0.00 0.00 0.00 0.00 0.00 0.00 0.00 0.00 0.02 0.02 0.05 0.12 0.14 0.13 0.11
0.13 0.12 0.11 0.04 0.01 0.02 0.08 0.03 0.03 0.11 0.57 0.87 0.77 0.43 0.20 0.23 0.05 0.08 0.12 0.09 0.02 0.00 0.00 0.00 0.00 0.00 0.00 0.00 0.00 0.01 0.01 0.00 0.00 0.00 0.00 0.01 0.00 0.00 0.00 0.00 0.00 0.00 0.00 0.00 0.00 0.00 0.01 0.06 0.13 0.16 0.15 0.11 0.08 0.03
0.16 0.12 0.11 0.06 0.01 0.01 0.05 0.11 0.07 0.09 0.29 0.65 0.64 0.39 0.35 0.47 0.41 0.43 0.40 0.17 0.04 0.01 0.00 0.01 0.00 0.00 0.01 0.03 0.04 0.06 0.06 0.04 0.03 0.00 0.02 0.01 0.00 0.00 0.00 0.00 0.00 0.00 0.00 0.00 0.03 0.09 0.14 0.17 0.16 0.11 0.06 0.02 0.00 0.00
0.20 0.13 0.10 0.07 0.05 0.03 0.03 0.08 0.10 0.14 0.25 0.48 0.76 0.98 1.01 1.21 1.11 0.85 0.39 0.13 0.04 0.01 0.00 0.00 0.02 0.03 0.05 0.07 0.17 0.20 0.26 0.18 0.05 0.07 0.06 0.07 0.03 0.04 0.04 0.02 0.01 0.02 0.04 0.08 0.10 0.09 0.06 0.03 0.01 0.00 0.00 0.00 0.00 0.00
0.13 0.15 0.12 0.09 0.07 0.08 0.04 0.05 0.09 0.13 0.18 0.45 0.73 1.01 0.91 0.96 0.67 0.42 0.18 0.06 0.04 0.04 0.02 0.01 0.04 0.05 0.08 0.16 0.44 0.51 0.50 0.26 0.26 0.15 0.08 0.17 0.24 0.12 0.02 0.00 0.00 0.00 0.00 0.00 0.00 0.00 0.00 0.00 0.00 0.00 0.00 0.00 0.00 0.00
0.02 0.04 0.07 0.10 0.10 0.14 0.10 0.09 0.09 0.02 0.08 0.20 0.29 0.47 0.50 0.36 0.26 0.18 0.16 0.13 0.12 0.15 0.18 0.23 0.29 0.26 0.28 0.40 0.44 0.38 0.34 0.30 0.24 0.24 0.26 0.28 0.15 0.02 0.01 0.01 0.01 0.00 0.00 0.00 0.00 0.00 0.00 0.00 0.00 0.00 0.00 0.00 0.00 0.00
0.00 0.02 0.02 0.03 0.05 0.08 0.09 0.12 0.09 0.06 0.08 0.06 0.12 0.16 0.20 0.17 0.22 0.24 0.24 0.22 0.24 0.30 0.35 0.37 0.34 0.36 0.44 0.39 0.30 0.28 0.28 0.29 0.31 0.15 0.04 0.03 0.02 0.03 0.04 0.06 0.02 0.00 0.00 0.00 0.00 0.00 0.00 0.00 0.00 0.00 0.00 0.00 0.00 0.00
0.01 0.03 0.01 0.00 0.00 0.03 0.03 0.15 0.10 0.06 0.07 0.03 0.05 0.04 0.05 0.07 0.12 0.16 0.13 0.14 0.14 0.17 0.21 0.15 0.14 0.18 0.21 0.22 0.24 0.20 0.24 0.16 0.06 0.01 0.00 0.00 0.01 0.02 0.03 0.01 0.00 0.00 0.00 0.00 0.00 0.00 0.00 0.00 0.00 0.00 0.00 0.00 0.00 0.00
0.02 0.02 0.00 0.00 0.00 0.03 0.05 0.02 0.02 0.00 0.01 0.02 0.02 0.03 0.02 0.03 0.03 0.02 0.01 0.00 0.00 0.02 0.02 0.01 0.02 0.03 0.07 0.08 0.11 0.07 0.01 0.01 0.01 0.01 0.01 0.00 0.00 0.00 0.00 0.00 0.00 0.00 0.00 0.00 0.00 0.00 0.00 0.00 0.00 0.00 0.00 0.00 0.00 0.00
0.02 0.03 0.00 0.01 0.01 0.01 0.06 0.03 0.00 0.00 0.01 0.02 0.03 0.03 0.03 0.03 0.02 0.00 0.00 0.00 0.00 0.00 0.00 0.00 0.02 0.01 0.01 0.00 0.00 0.00 0.00 0.00 0.00 0.00 0.00 0.01 0.00 0.00 0.00 0.00 0.00 0.00 0.00 0.00 0.00 0.00 0.00 0.00 0.00 0.00 0.00 0.00 0.00 0.01
0.03 0.14 0.04 0.05 0.00 0.01 0.00 0.01 0.00 0.00 0.00 0.01 0.01 0.01 0.01 0.02 0.01 0.01 0.01 0.00 0.00 0.00 0.01 0.00 0.00 0.00 0.00 0.00 0.00 0.00 0.00 0.00 0.00 0.00 0.00 0.00 0.00 0.00 0.00 0.00 0.00 0.00 0.00 0.00 0.00 0.00 0.00 0.00 0.00 0.01 0.01 0.02 0.02 0.02
0.10 0.27 0.15 0.08 0.02 0.00 0.00 0.00 0.00 0.00 0.00 0.01 0.01 0.00 0.01 0.01 0.00 0.00 0.00 0.00 0.00 0.01 0.01 0.00 0.00 0.00 0.00 0.00 0.00 0.00 0.00 0.00 0.00 0.00 0.00 0.00 0.00 0.00 0.00 0.00 0.00 0.00 0.00 0.00 0.00 0.00 0.01 0.02 0.02 0.03 0.06 0.02 0.01 0.01
0.13 0.26 0.30 0.16 0.13 0.01 0.00 0.00 0.00 0.00 0.00 0.00 0.00 0.00 0.01 0.01 0.01 0.01 0.00 0.00 0.00 0.01 0.01 0.01 0.01 0.00 0.00 0.00 0.00 0.00 0.00 0.00 0.00 0.00 0.00 0.00 0.00 0.00 0.00 0.00 0.00 0.00 0.00 0.02 0.03 0.01 0.01 0.02 0.03 0.03 0.02 0.01 0.01 0.02
0.33 0.38 0.40 0.34 0.19 0.05 0.01 0.00 0.00 0.00 0.00 0.01 0.01 0.00 0.00 0.00 0.01 0.00 0.01 0.00 0.01 0.02 0.03 0.02 0.03 0.03 0.03 0.01 0.00 0.00 0.00 0.00 0.00 0.00 0.00 0.00 0.00 0.00 0.01 0.01 0.02 0.03 0.02 0.01 0.04 0.03 0.03 0.03 0.02 0.01 0.01 0.02 0.04 0.04
0.37 0.37 0.34 0.31 0.18 0.11 0.04 0.01 0.00 0.00 0.00 0.01 0.01 0.00 0.00 0.00 0.01 0.01 0.01 0.03 0.05 0.03 0.04 0.05 0.05 0.05 0.03 0.01 0.01 0.00 0.00 0.00 0.00 0.00 0.00 0.00 0.01 0.01 0.02 0.02 0.02 0.03 0.03 0.03 0.03 0.02 0.01 0.01 0.01 0.03 0.04 0.05 0.03 0.04
0.29 0.27 0.24 0.16 0.06 0.03 0.02 0.02 0.02 0.01 0.01 0.00 0.00 0.00 0.01 0.00 0.01 0.01 0.02 0.07 0.06 0.06 0.06 0.07 0.07 0.06 0.06 0.06 0.04 0.02 0.01 0.01 0.00 0.01 0.01 0.02 0.02 0.02 0.01 0.02 0.02 0.03 0.04 0.03 0.02 0.02 0.03 0.04 0.05 0.04 0.03 0.05 0.07 0.08
0.15 0.09 0.08 0.05 0.03 0.04 0.02 0.01 0.01 0.02 0.01 0.03 0.05 0.05 0.03 0.03 0.03 0.03 0.06 0.11 0.09 0.10 0.10 0.10 0.08 0.07 0.06 0.06 0.05 0.04 0.01 0.01 0.00 0.00 0.01 0.02 0.02 0.03 0.03 0.03 0.02 0.02 0.03 0.04 0.07 0.08 0.05 0.03 0.04 0.05 0.06 0.07 0.09 0.10
0.06 0.03 0.01 0.01 0.02 0.07 0.08 0.05 0.08 0.08 0.08 0.09 0.07 0.06 0.08 0.08 0.05 0.07 0.08 0.10 0.10 0.12 0.10 0.07 0.05 0.04 0.04 0.04 0.02 0.01 0.00 0.00 0.00 0.01 0.01 0.03 0.03 0.04 0.06 0.11 0.12 0.10 0.04 0.05 0.08 0.10 0.12 0.10 0.08 0.07 0.08 0.07 0.10 0.17
0.03 0.04 0.06 0.09 0.13 0.13 0.12 0.11 0.13 0.11 0.10 0.11 0.08 0.08 0.10 0.07 0.07 0.07 0.07 0.09 0.08 0.07 0.04 0.02 0.01 0.01 0.01 0.02 0.01 0.01 0.01 0.00 0.00 0.00 0.01 0.04 0.05 0.05 0.04 0.05 0.06 0.04 0.04 0.07 0.08 0.08 0.10 0.12 0.11 0.08 0.09 0.13 0.16 0.13
0.07 0.07 0.08 0.08 0.10 0.07 0.06 0.06 0.08 0.09 0.09 0.09 0.05 0.03 0.03 0.03 0.06 0.07 0.07 0.06 0.05 0.02 0.02 0.02 0.03 0.02 0.02 0.01 0.01 0.02 0.01 0.01 0.00 0.00 0.00 0.01 0.04 0.05 0.03 0.04 0.05 0.05 0.05 0.05 0.05 0.07 0.08 0.09 0.08 0.10 0.17 0.18 0.14 0.13
0.04 0.04 0.03 0.02 0.01 0.02 0.03 0.03 0.04 0.04 0.02 0.02 0.02 0.02 0.03 0.05 0.08 0.07 0.05 0.03 0.03 0.04 0.05 0.04 0.03 0.01 0.01 0.01 0.01 0.02 0.04 0.02 0.02 0.03 0.04 0.03 0.04 0.04 0.04 0.04 0.04 0.05 0.05 0.05 0.05 0.05 0.05 0.04 0.04 0.12 0.10 0.07 0.09 0.10
0.01 0.01 0.00 0.00 0.02 0.03 0.02 0.00 0.02 0.04 0.04 0.03 0.02 0.02 0.07 0.07 0.07 0.06 0.04 0.05 0.03 0.02 0.01 0.01 0.01 0.01 0.01 0.01 0.02 0.02 0.01 0.01 0.02 0.03 0.03 0.03 0.04 0.03 0.03 0.03 0.03 0.04 0.05 0.05 0.05 0.06 0.06 0.06 0.09 0.10 0.07 0.05 0.07 0.07
0.00 0.01 0.01 0.01 0.02 0.01 0.00 0.00 0.00 0.01 0.02 0.02 0.04 0.03 0.05 0.03 0.03 0.04 0.04 0.03 0.01 0.01 0.01 0.01 0.01 0.02 0.02 0.02 0.02 0.03 0.03 0.02 0.01 0.02 0.02 0.03 0.03 0.02 0.02 0.02 0.03 0.04 0.05 0.05 0.05 0.07 0.08 0.07 0.08 0.06 0.08 0.06 0.06 0.06
0.01 0.01 0.01 0.01 0.01 0.01 0.01 0.00 0.00 0.00 0.02 0.03 0.06 0.05 0.05 0.04 0.04 0.05 0.05 0.02 0.01 0.01 0.01 0.01 0.01 0.02 0.03 0.02 0.01 0.02 0.01 0.01 0.01 0.01 0.02 0.02 0.01 0.02 0.02 0.03 0.03 0.04 0.04 0.05 0.06 0.07 0.07 0.06 0.06 0.06 0.06 0.06 0.05 0.04

GFSWCAN_prec_precacc24_039.txt.gz
Total_Precipitation_Accumulation
0.21 0.24 0.18 0.08 0.04 0.05 0.08 0.13 0.09 0.08 0.07 0.05 0.01 0.00 0.00 0.00 0.03 0.11 0.04 0.01 0.00 0.00 0.00 0.00 0.00 0.00 0.00 0.00 0.00 0.00 0.00 0.00 0.00 0.00 0.00 0.00 0.00 0.00 0.00 0.00 0.00 0.00 0.00 0.00 0.00 0.00 0.00 0.00 0.00 0.01 0.00 0.01 0.01 0.00
0.42 0.20 0.11 0.08 0.07 0.09 0.10 0.08 0.05 0.06 0.02 0.01 0.00 0.00 0.00 0.01 0.04 0.12 0.05 0.04 0.00 0.00 0.00 0.00 0.00 0.00 0.00 0.00 0.00 0.00 0.00 0.00 0.00 0.00 0.01 0.01 0.00 0.00 0.00 0.00 0.00 0.00 0.00 0.00 0.00 0.00 0.00 0.00 0.00 0.00 0.00 0.01 0.00 0.00
0.46 0.22 0.14 0.09 0.07 0.06 0.05 0.03 0.04 0.04 0.01 0.01 0.01 0.01 0.00 0.01 0.04 0.09 0.04 0.04 0.01 0.01 0.01 0.00 0.00 0.00 0.00 0.00 0.00 0.00 0.00 0.00 0.00 0.00 0.00 0.00 0.01 0.00 0.00 0.00 0.00 0.00 0.00 0.00 0.00 0.00 0.00 0.00 0.00 0.00 0.00 0.00 0.00 0.00
0.52 0.30 0.15 0.07 0.03 0.02 0.01 0.01 0.02 0.02 0.03 0.01 0.01 0.01 0.00 0.01 0.04 0.08 0.02 0.03 0.04 0.02 0.04 0.00 0.00 0.00 0.00 0.00 0.00 0.00 0.00 0.00 0.00 0.00 0.00 0.01 0.01 0.00 0.00 0.00 0.00 0.00 0.00 0.00 0.00 0.00 0.00 0.00 0.00 0.00 0.01 0.00 0.00 0.00
0.39 0.30 0.16 0.07 0.02 0.01 0.01 0.01 0.03 0.03 0.07 0.03 0.02 0.02 0.01 0.01 0.05 0.06 0.04 0.03 0.04 0.06 0.04 0.01 0.01 0.00 0.00 0.00 0.00 0.00 0.00 0.00 0.00 0.00 0.01 0.01 0.00 0.00 0.00 0.00 0.00 0.00 0.00 0.00 0.00 0.00 0.00 0.01 0.00 0.00 0.01 0.01 0.00 0.00
0.35 0.25 0.17 0.10 0.06 0.03 0.04 0.07 0.08 0.10 0.05 0.03 0.01 0.01 0.01 0.04 0.07 0.03 0.03 0.02 0.02 0.01 0.01 0.02 0.01 0.01 0.00 0.00 0.00 0.00 0.00 0.00 0.00 0.00 0.00 0.00 0.00 0.01 0.00 0.00 0.00 0.00 0.00 0.00 0.00 0.00 0.00 0.00 0.00 0.01 0.01 0.00 0.00 0.00
0.34 0.23 0.16 0.09 0.07 0.07 0.07 0.08 0.09 0.11 0.04 0.03 0.03 0.03 0.04 0.08 0.06 0.02 0.01 0.01 0.01 0.01 0.01 0.01 0.01 0.02 0.02 0.00 0.00 0.00 0.00 0.00 0.00 0.01 0.01 0.00 0.00 0.01 0.01 0.00 0.00 0.00 0.00 0.00 0.00 0.00 0.00 0.00 0.00 0.00 0.00 0.00 0.00 0.00
0.28 0.19 0.12 0.08 0.05 0.07 0.06 0.07 0.08 0.06 0.06 0.05 0.05 0.04 0.05 0.09 0.04 0.01 0.00 0.00 0.00 0.01 0.01 0.00 0.00 0.02 0.01 0.02 0.02 0.01 0.01 0.01 0.00 0.01 0.01 0.01 0.00 0.01 0.00 0.00 0.00 0.00 0.00 0.00 0.00 0.00 0.00 0.00 0.00 0.00 0.00 0.00 0.00 0.01
0.18 0.13 0.08 0.04 0.03 0.07 0.02 0.02 0.04 0.02 0.02 0.02 0.02 0.04 0.03 0.03 0.03 0.02 0.00 0.00 0.00 0.03 0.02 0.01 0.01 0.01 0.00 0.00 0.00 0.00 0.01 0.01 0.00 0.01 0.01 0.00 0.00 0.00 0.00 0.00 0.00 0.00 0.00 0.00 0.00 0.00 0.00 0.00 0.00 0.00 0.01 0.01 0.06 0.15
0.13 0.10 0.08 0.02 0.02 0.06 0.04 0.00 0.01 0.00 0.03 0.10 0.07 0.07 0.05 0.03 0.01 0.00 0.01 0.01 0.00 0.00 0.00 0.00 0.00 0.00 0.00 0.00 0.00 0.00 0.00 0.00 0.00 0.00 0.00 0.00 0.00 0.00 0.00 0.00 0.00 0.00 0.00 0.00 0.00 0.00 0.00 0.02 0.02 0.05 0.12 0.14 0.13 0.11
0.13 0.12 0.11 0.06 0.03 0.02 0.08 0.03 0.02 0.03 0.15 0.35 0.31 0.17 0.09 0.11 0.01 0.02 0.02 0.00 0.00 0.00 0.00 0.00 0.00 0.00 0.00 0.00 0.00 0.00 0.00 0.00 0.00 0.00 0.00 0.01 0.00 0.00 0.00 0.00 0.00 0.00 0.00 0.00 0.00 0.00 0.01 0.06 0.13 0.16 0.15 0.11 0.08 0.03
0.16 0.12 0.11 0.06 0.01 0.01 0.05 0.09 0.05 0.01 0.06 0.28 0.32 0.22 0.22 0.32 0.26 0.22 0.21 0.04 0.00 0.00 0.00 0.00 0.00 0.00 0.00 0.00 0.00 0.00 0.02 0.02 0.01 0.00 0.01 0.01 0.01 0.00 0.00 0.00 0.00 0.00 0.00 0.00 0.03 0.09 0.14 0.17 0.16 0.11 0.06 0.02 0.00 0.00
0.20 0.13 0.10 0.07 0.05 0.02 0.03 0.07 0.09 0.10 0.11 0.19 0.42 0.60 0.67 0.88 0.81 0.60 0.24 0.07 0.02 0.00 0.00 0.00 0.00 0.00 0.00 0.01 0.11 0.16 0.22 0.14 0.04 0.07 0.06 0.07 0.03 0.04 0.04 0.02 0.01 0.02 0.04 0.08 0.10 0.09 0.06 0.03 0.01 0.00 0.00 0.00 0.00 0.00
0.15 0.15 0.12 0.09 0.07 0.06 0.03 0.04 0.07 0.09 0.10 0.23 0.40 0.64 0.62 0.66 0.45 0.31 0.14 0.05 0.04 0.04 0.02 0.01 0.01 0.02 0.05 0.13 0.40 0.46 0.47 0.25 0.26 0.16 0.08 0.17 0.24 0.12 0.02 0.00 0.00 0.00 0.00 0.00 0.00 0.00 0.00 0.00 0.00 0.00 0.00 0.00 0.00 0.00
0.02 0.04 0.07 0.10 0.10 0.12 0.08 0.06 0.04 0.04 0.13 0.18 0.20 0.33 0.32 0.20 0.16 0.12 0.12 0.10 0.11 0.13 0.16 0.21 0.27 0.25 0.26 0.37 0.41 0.37 0.33 0.30 0.25 0.25 0.26 0.28 0.16 0.02 0.01 0.01 0.01 0.00 0.00 0.00 0.00 0.00 0.00 0.00 0.00 0.00 0.00 0.00 0.00 0.00
0.00 0.02 0.02 0.05 0.07 0.07 0.06 0.04 0.03 0.04 0.08 0.07 0.08 0.08 0.11 0.09 0.14 0.17 0.20 0.19 0.22 0.28 0.33 0.34 0.32 0.32 0.40 0.35 0.28 0.27 0.28 0.30 0.31 0.15 0.04 0.03 0.02 0.03 0.04 0.06 0.02 0.00 0.00 0.00 0.00 0.00 0.00 0.00 0.00 0.00 0.00 0.00 0.00 0.00
0.00 0.02 0.00 0.00 0.00 0.01 0.00 0.04 0.09 0.09 0.09 0.04 0.06 0.04 0.04 0.04 0.10 0.12 0.10 0.11 0.11 0.13 0.17 0.13 0.13 0.17 0.20 0.21 0.24 0.21 0.26 0.16 0.07 0.02 0.01 0.01 0.01 0.02 0.03 0.01 0.00 0.00 0.00 0.00 0.00 0.00 0.00 0.00 0.00 0.00 0.00 0.00 0.00 0.00
0.02 0.02 0.00 0.00 0.00 0.01 0.01 0.02 0.05 0.03 0.03 0.05 0.05 0.06 0.04 0.05 0.05 0.04 0.02 0.01 0.01 0.03 0.03 0.02 0.02 0.04 0.09 0.09 0.12 0.07 0.01 0.01 0.01 0.01 0.01 0.01 0.00 0.01 0.01 0.00 0.00 0.00 0.00 0.00 0.00 0.00 0.00 0.00 0.00 0.00 0.00 0.00 0.00 0.00
0.01 0.01 0.00 0.01 0.00 0.00 0.01 0.01 0.00 0.01 0.03 0.03 0.05 0.04 0.03 0.04 0.03 0.01 0.00 0.00 0.00 0.00 0.00 0.00 0.03 0.02 0.01 0.00 0.00 0.00 0.00 0.00 0.01 0.00 0.01 0.01 0.01 0.00 0.00 0.00 0.00 0.00 0.00 0.00 0.00 0.00 0.00 0.00 0.00 0.00 0.00 0.00 0.00 0.01
0.00 0.02 0.02 0.05 0.00 0.00 0.00 0.00 0.00 0.00 0.01 0.02 0.02 0.02 0.02 0.02 0.02 0.01 0.00 0.00 0.00 0.00 0.00 0.00 0.01 0.00 0.00 0.00 0.00 0.00 0.00 0.00 0.00 0.00 0.00 0.01 0.01 0.00 0.00 0.00 0.00 0.00 0.00 0.00 0.00 0.00 0.00 0.00 0.00 0.01 0.01 0.02 0.02 0.02
0.01 0.05 0.06 0.07 0.02 0.00 0.00 0.00 0.00 0.00 0.00 0.01 0.01 0.00 0.01 0.02 0.01 0.00 0.00 0.00 0.00 0.01 0.01 0.01 0.01 0.01 0.00 0.00 0.00 0.00 0.00 0.00 0.00 0.00 0.00 0.00 0.00 0.00 0.00 0.00 0.00 0.00 0.00 0.00 0.00 0.00 0.01 0.02 0.02 0.03 0.06 0.02 0.01 0.01
0.03 0.08 0.18 0.12 0.10 0.01 0.00 0.00 0.00 0.00 0.00 0.01 0.00 0.00 0.01 0.02 0.02 0.01 0.00 0.00 0.01 0.02 0.02 0.03 0.01 0.00 0.00 0.00 0.00 0.00 0.00 0.00 0.00 0.00 0.00 0.00 0.00 0.00 0.00 0.00 0.00 0.00 0.00 0.02 0.02 0.01 0.01 0.02 0.03 0.03 0.02 0.01 0.00 0.01
0.16 0.19 0.27 0.28 0.16 0.04 0.01 0.00 0.00 0.00 0.01 0.01 0.01 0.00 0.00 0.01 0.01 0.00 0.01 0.01 0.03 0.04 0.05 0.04 0.05 0.05 0.04 0.02 0.00 0.00 0.00 0.00 0.00 0.00 0.00 0.00 0.00 0.00 0.01 0.01 0.02 0.03 0.02 0.01 0.04 0.03 0.03 0.03 0.02 0.00 0.00 0.02 0.04 0.03
0.26 0.26 0.27 0.27 0.17 0.10 0.04 0.01 0.00 0.01 0.00 0.01 0.01 0.01 0.01 0.01 0.01 0.01 0.02 0.04 0.06 0.05 0.06 0.08 0.07 0.08 0.06 0.04 0.03 0.02 0.01 0.00 0.00 0.00 0.00 0.00 0.01 0.01 0.02 0.02 0.02 0.03 0.03 0.03 0.03 0.02 0.01 0.00 0.01 0.02 0.03 0.04 0.03 0.04
0.27 0.25 0.23 0.16 0.06 0.03 0.02 0.01 0.02 0.01 0.01 0.01 0.01 0.01 0.01 0.01 0.01 0.01 0.03 0.08 0.07 0.07 0.07 0.09 0.09 0.09 0.09 0.10 0.08 0.06 0.03 0.02 0.02 0.02 0.01 0.01 0.01 0.01 0.01 0.01 0.02 0.03 0.03 0.03 0.02 0.02 0.02 0.04 0.04 0.04 0.03 0.04 0.07 0.08
0.15 0.09 0.08 0.05 0.03 0.04 0.02 0.02 0.02 0.02 0.02 0.04 0.05 0.05 0.03 0.04 0.03 0.04 0.06 0.12 0.10 0.11 0.12 0.12 0.11 0.09 0.09 0.09 0.08 0.06 0.03 0.03 0.01 0.01 0.01 0.01 0.02 0.03 0.03 0.03 0.02 0.01 0.02 0.04 0.06 0.07 0.04 0.02 0.03 0.05 0.05 0.05 0.08 0.10
0.06 0.03 0.01 0.01 0.02 0.07 0.08 0.06 0.08 0.09 0.08 0.10 0.07 0.07 0.09 0.08 0.06 0.08 0.09 0.11 0.11 0.14 0.11 0.09 0.06 0.05 0.05 0.05 0.03 0.02 0.01 0.00 0.01 0.01 0.01 0.03 0.03 0.03 0.05 0.09 0.11 0.09 0.04 0.03 0.06 0.08 0.10 0.09 0.07 0.06 0.07 0.06 0.09 0.16
0.03 0.04 0.06 0.09 0.13 0.13 0.13 0.12 0.13 0.11 0.10 0.11 0.09 0.09 0.10 0.07 0.08 0.08 0.08 0.10 0.09 0.07 0.04 0.02 0.02 0.01 0.02 0.02 0.02 0.01 0.01 0.00 0.00 0.00 0.01 0.04 0.03 0.02 0.01 0.02 0.03 0.02 0.02 0.03 0.05 0.06 0.08 0.10 0.09 0.08 0.08 0.12 0.15 0.13
0.07 0.08 0.08 0.08 0.10 0.07 0.06 0.07 0.08 0.09 0.10 0.09 0.06 0.03 0.04 0.04 0.07 0.08 0.08 0.07 0.06 0.03 0.03 0.03 0.04 0.03 0.02 0.01 0.01 0.01 0.00 0.00 0.00 0.00 0.00 0.00 0.00 0.00 0.00 0.01 0.01 0.01 0.02 0.02 0.02 0.04 0.06 0.08 0.08 0.10 0.17 0.18 0.14 0.13
0.04 0.04 0.03 0.02 0.01 0.03 0.04 0.04 0.05 0.04 0.03 0.02 0.02 0.02 0.03 0.05 0.09 0.08 0.06 0.04 0.04 0.05 0.06 0.05 0.04 0.02 0.01 0.00 0.00 0.01 0.03 0.01 0.01 0.02 0.02 0.02 0.02 0.02 0.02 0.01 0.01 0.01 0.02 0.03 0.03 0.02 0.03 0.03 0.04 0.12 0.10 0.07 0.09 0.10
0.01 0.01 0.00 0.00 0.02 0.04 0.02 0.01 0.03 0.05 0.05 0.04 0.03 0.03 0.07 0.06 0.07 0.06 0.04 0.06 0.03 0.02 0.01 0.01 0.00 0.01 0.00 0.01 0.01 0.01 0.01 0.01 0.01 0.02 0.01 0.02 0.02 0.02 0.01 0.01 0.01 0.02 0.02 0.02 0.03 0.04 0.06 0.05 0.08 0.10 0.07 0.05 0.07 0.06
0.00 0.01 0.01 0.01 0.03 0.02 0.00 0.01 0.01 0.02 0.03 0.03 0.04 0.03 0.05 0.04 0.04 0.05 0.05 0.04 0.02 0.01 0.00 0.00 0.01 0.01 0.01 0.02 0.01 0.02 0.02 0.01 0.01 0.01 0.02 0.02 0.02 0.01 0.01 0.01 0.02 0.02 0.02 0.02 0.03 0.05 0.07 0.07 0.08 0.06 0.08 0.06 0.06 0.05
0.01 0.01 0.01 0.01 0.01 0.01 0.01 0.00 0.00 0.01 0.02 0.03 0.06 0.06 0.05 0.04 0.04 0.06 0.05 0.02 0.01 0.01 0.01 0.00 0.00 0.01 0.02 0.01 0.00 0.01 0.01 0.00 0.00 0.01 0.01 0.02 0.01 0.01 0.01 0.01 0.02 0.02 0.02 0.02 0.04 0.06 0.06 0.06 0.06 0.06 0.06 0.06 0.05 0.04

GFSWCAN_prec_precacc24_042.txt.gz
Total_Precipitation_Accumulation
0.18 0.24 0.18 0.08 0.04 0.05 0.09 0.14 0.13 0.14 0.12 0.09 0.08 0.07 0.02 0.04 0.12 0.33 0.17 0.17 0.64 0.07 0.00 0.00 0.00 0.00 0.00 0.15 0.23 0.01 0.00 0.00 0.00 0.00 0.01 0.00 0.01 0.00 0.00 0.00 0.00 0.00 0.00 0.00 0.00 0.00 0.00 0.00 0.00 0.00 0.00 0.00 0.00 0.00
0.30 0.17 0.11 0.08 0.07 0.09 0.12 0.14 0.15 0.15 0.08 0.06 0.08 0.06 0.06 0.06 0.22 0.35 0.19 0.15 0.35 0.08 0.00 0.00 0.00 0.00 0.00 0.02 0.04 0.00 0.00 0.00 0.00 0.00 0.01 0.02 0.00 0.00 0.00 0.00 0.00 0.00 0.00 0.00 0.00 0.00 0.00 0.00 0.00 0.00 0.00 0.00 0.00 0.00
0.27 0.15 0.13 0.11 0.10 0.10 0.14 0.17 0.16 0.14 0.08 0.06 0.07 0.07 0.06 0.11 0.28 0.26 0.16 0.18 0.13 0.01 0.02 0.01 0.00 0.00 0.00 0.01 0.01 0.00 0.00 0.00 0.00 0.00 0.00 0.01 0.01 0.00 0.00 0.00 0.00 0.00 0.00 0.00 0.00 0.00 0.00 0.00 0.00 0.00 0.00 0.00 0.00 0.00
0.41 0.23 0.13 0.10 0.09 0.10 0.13 0.16 0.12 0.11 0.10 0.06 0.06 0.06 0.05 0.19 0.15 0.18 0.21 0.30 0.11 0.04 0.07 0.01 0.00 0.00 0.00 0.00 0.00 0.00 0.00 0.00 0.00 0.00 0.00 0.01 0.01 0.00 0.00 0.00 0.00 0.00 0.00 0.00 0.00 0.00 0.00 0.00 0.00 0.00 0.00 0.00 0.00 0.00
0.40 0.30 0.18 0.12 0.09 0.07 0.09 0.12 0.10 0.08 0.11 0.06 0.04 0.03 0.09 0.11 0.07 0.13 0.13 0.09 0.10 0.07 0.05 0.02 0.01 0.00 0.00 0.00 0.00 0.00 0.00 0.00 0.00 0.00 0.01 0.01 0.00 0.00 0.00 0.00 0.00 0.00 0.00 0.00 0.00 0.00 0.00 0.00 0.00 0.00 0.00 0.00 0.00 0.00
0.45 0.31 0.19 0.11 0.08 0.08 0.09 0.11 0.09 0.11 0.07 0.05 0.03 0.02 0.04 0.06 0.09 0.08 0.08 0.05 0.05 0.01 0.01 0.02 0.01 0.01 0.00 0.00 0.00 0.00 0.00 0.00 0.00 0.00 0.00 0.00 0.00 0.00 0.00 0.00 0.00 0.00 0.00 0.00 0.00 0.00 0.00 0.00 0.00 0.00 0.00 0.00 0.00 0.00
0.53 0.40 0.27 0.14 0.11 0.09 0.08 0.09 0.09 0.12 0.05 0.04 0.05 0.05 0.08 0.10 0.08 0.10 0.09 0.03 0.03 0.01 0.01 0.02 0.02 0.02 0.02 0.00 0.00 0.00 0.00 0.00 0.00 0.00 0.00 0.00 0.00 0.00 0.00 0.00 0.00 0.00 0.00 0.00 0.00 0.00 0.00 0.00 0.00 0.00 0.00 0.00 0.00 0.00
0.45 0.32 0.22 0.16 0.13 0.12 0.11 0.09 0.09 0.07 0.06 0.06 0.05 0.06 0.06 0.12 0.06 0.04 0.02 0.00 0.00 0.00 0.00 0.02 0.01 0.02 0.01 0.02 0.02 0.01 0.01 0.00 0.00 0.00 0.01 0.00 0.00 0.00 0.00 0.00 0.00 0.00 0.00 0.00 0.00 0.00 0.00 0.00 0.00 0.00 0.00 0.00 0.00 0.01
0.21 0.14 0.10 0.08 0.10 0.14 0.13 0.13 0.08 0.05 0.03 0.02 0.02 0.03 0.06 0.09 0.10 0.02 0.00 0.00 0.00 0.03 0.02 0.01 0.01 0.01 0.01 0.01 0.01 0.00 0.01 0.01 0.00 0.00 0.01 0.00 0.00 0.00 0.00 0.00 0.00 0.00 0.00 0.00 0.00 0.00 0.00 0.00 0.00 0.00 0.01 0.01 0.06 0.15
0.13 0.11 0.09 0.04 0.04 0.09 0.11 0.07 0.04 0.02 0.02 0.02 0.03 0.05 0.11 0.05 0.02 0.00 0.00 0.01 0.01 0.00 0.00 0.00 0.00 0.00 0.00 0.01 0.01 0.01 0.01 0.00 0.00 0.00 0.00 0.00 0.00 0.00 0.00 0.00 0.00 0.00 0.00 0.00 0.00 0.00 0.00 0.02 0.02 0.05 0.12 0.14 0.13 0.11
0.15 0.15 0.12 0.08 0.04 0.02 0.08 0.04 0.04 0.04 0.07 0.11 0.11 0.04 0.03 0.02 0.01 0.00 0.00 0.01 0.02 0.00 0.00 0.00 0.00 0.00 0.00 0.01 0.01 0.00 0.00 0.00 0.00 0.00 0.00 0.01 0.00 0.00 0.00 0.00 0.00 0.00 0.00 0.00 0.00 0.00 0.01 0.06 0.13 0.16 0.15 0.11 0.08 0.03
0.17 0.15 0.18 0.12 0.01 0.01 0.06 0.09 0.04 0.01 0.04 0.14 0.13 0.09 0.10 0.13 0.13 0.08 0.05 0.01 0.00 0.00 0.00 0.00 0.00 0.00 0.00 0.00 0.00 0.00 0.00 0.00 0.00 0.00 0.01 0.01 0.01 0.00 0.00 0.00 0.00 0.00 0.00 0.00 0.03 0.09 0.14 0.17 0.16 0.11 0.06 0.02 0.00 0.00
0.20 0.13 0.12 0.09 0.05 0.02 0.03 0.07 0.09 0.09 0.09 0.10 0.17 0.28 0.35 0.48 0.41 0.29 0.10 0.04 0.01 0.00 0.00 0.00 0.00 0.00 0.00 0.00 0.08 0.10 0.13 0.07 0.02 0.05 0.06 0.07 0.03 0.04 0.04 0.02 0.01 0.02 0.04 0.08 0.10 0.09 0.06 0.03 0.01 0.00 0.00 0.00 0.00 0.00
0.15 0.15 0.12 0.09 0.07 0.05 0.03 0.04 0.07 0.10 0.10 0.18 0.24 0.34 0.31 0.35 0.21 0.15 0.06 0.03 0.04 0.04 0.02 0.01 0.01 0.01 0.02 0.09 0.30 0.35 0.37 0.20 0.23 0.14 0.08 0.17 0.24 0.13 0.02 0.00 0.00 0.00 0.00 0.00 0.00 0.00 0.00 0.00 0.00 0.00 0.00 0.00 0.00 0.00
0.02 0.04 0.07 0.10 0.10 0.11 0.08 0.06 0.04 0.04 0.15 0.19 0.14 0.20 0.17 0.08 0.06 0.04 0.04 0.04 0.07 0.10 0.13 0.16 0.20 0.19 0.20 0.30 0.32 0.30 0.28 0.25 0.22 0.23 0.25 0.29 0.16 0.02 0.01 0.01 0.01 0.00 0.00 0.00 0.00 0.00 0.00 0.00 0.00 0.00 0.00 0.00 0.00 0.00
0.00 0.01 0.02 0.05 0.07 0.07 0.05 0.04 0.03 0.05 0.16 0.15 0.11 0.04 0.05 0.03 0.07 0.08 0.10 0.11 0.13 0.18 0.22 0.26 0.23 0.26 0.33 0.30 0.22 0.21 0.23 0.26 0.29 0.15 0.04 0.03 0.03 0.04 0.04 0.06 0.02 0.00 0.00 0.00 0.00 0.00 0.00 0.00 0.00 0.00 0.00 0.00 0.00 0.00
0.00 0.01 0.00 0.00 0.00 0.01 0.00 0.01 0.05 0.09 0.12 0.07 0.12 0.11 0.05 0.04 0.06 0.06 0.06 0.07 0.07 0.07 0.08 0.07 0.09 0.12 0.15 0.17 0.21 0.19 0.24 0.15 0.07 0.03 0.02 0.02 0.02 0.02 0.03 0.01 0.00 0.00 0.00 0.00 0.00 0.00 0.00 0.00 0.00 0.00 0.00 0.00 0.00 0.00
0.01 0.01 0.00 0.00 0.00 0.00 0.00 0.02 0.05 0.03 0.03 0.06 0.07 0.10 0.08 0.09 0.07 0.06 0.03 0.01 0.01 0.02 0.02 0.01 0.02 0.05 0.10 0.10 0.13 0.08 0.03 0.03 0.03 0.03 0.02 0.02 0.01 0.01 0.01 0.00 0.00 0.00 0.00 0.00 0.00 0.00 0.00 0.00 0.00 0.00 0.00 0.00 0.00 0.00
0.00 0.01 0.00 0.01 0.00 0.00 0.00 0.00 0.02 0.04 0.06 0.06 0.09 0.08 0.07 0.08 0.06 0.04 0.03 0.02 0.02 0.02 0.02 0.03 0.05 0.05 0.05 0.04 0.04 0.02 0.01 0.01 0.01 0.01 0.01 0.02 0.02 0.02 0.01 0.00 0.00 0.00 0.00 0.00 0.00 0.00 0.00 0.00 0.00 0.00 0.00 0.00 0.00 0.01
0.00 0.00 0.00 0.03 0.00 0.00 0.00 0.00 0.00 0.01 0.03 0.04 0.05 0.05 0.03 0.04 0.03 0.02 0.01 0.00 0.00 0.00 0.01 0.03 0.06 0.06 0.05 0.04 0.03 0.01 0.01 0.00 0.00 0.00 0.01 0.02 0.02 0.01 0.00 0.00 0.00 0.00 0.00 0.00 0.00 0.00 0.00 0.00 0.00 0.00 0.00 0.00 0.01 0.01
0.00 0.00 0.00 0.04 0.02 0.00 0.00 0.00 0.00 0.00 0.01 0.02 0.02 0.01 0.02 0.02 0.01 0.01 0.00 0.00 0.00 0.01 0.03 0.04 0.04 0.03 0.01 0.01 0.01 0.00 0.00 0.00 0.00 0.00 0.00 0.00 0.00 0.00 0.00 0.00 0.00 0.00 0.00 0.00 0.00 0.00 0.00 0.00 0.00 0.01 0.02 0.01 0.01 0.01
0.00 0.01 0.03 0.06 0.07 0.01 0.00 0.00 0.00 0.00 0.00 0.01 0.00 0.00 0.02 0.03 0.02 0.01 0.00 0.00 0.02 0.04 0.05 0.07 0.05 0.02 0.01 0.02 0.02 0.02 0.02 0.01 0.01 0.01 0.01 0.00 0.00 0.00 0.00 0.00 0.00 0.00 0.00 0.00 0.01 0.01 0.00 0.01 0.02 0.01 0.01 0.01 0.00 0.01
0.02 0.06 0.08 0.10 0.08 0.02 0.01 0.00 0.00 0.00 0.01 0.01 0.01 0.00 0.01 0.02 0.01 0.01 0.01 0.02 0.05 0.07 0.07 0.06 0.07 0.06 0.05 0.02 0.00 0.00 0.00 0.01 0.01 0.02 0.02 0.01 0.01 0.00 0.00 0.00 0.00 0.01 0.01 0.00 0.01 0.02 0.02 0.02 0.01 0.00 0.00 0.01 0.03 0.03
0.04 0.09 0.09 0.12 0.12 0.09 0.03 0.01 0.00 0.01 0.01 0.02 0.01 0.01 0.01 0.01 0.01 0.01 0.03 0.06 0.09 0.07 0.08 0.10 0.09 0.10 0.07 0.05 0.04 0.03 0.03 0.01 0.01 0.01 0.01 0.00 0.00 0.00 0.00 0.00 0.00 0.01 0.01 0.01 0.01 0.01 0.01 0.00 0.01 0.02 0.03 0.02 0.01 0.03
0.05 0.09 0.11 0.09 0.04 0.03 0.02 0.02 0.02 0.02 0.01 0.01 0.02 0.02 0.01 0.01 0.02 0.02 0.04 0.11 0.09 0.08 0.09 0.11 0.10 0.10 0.11 0.12 0.11 0.08 0.06 0.04 0.03 0.03 0.02 0.01 0.01 0.00 0.00 0.00 0.00 0.01 0.00 0.01 0.01 0.01 0.02 0.03 0.03 0.02 0.01 0.03 0.05 0.06
0.08 0.06 0.07 0.04 0.03 0.04 0.02 0.02 0.02 0.02 0.02 0.05 0.06 0.05 0.03 0.05 0.04 0.05 0.07 0.14 0.12 0.12 0.13 0.14 0.14 0.10 0.10 0.10 0.09 0.08 0.05 0.04 0.02 0.01 0.02 0.01 0.02 0.02 0.01 0.01 0.01 0.01 0.00 0.01 0.04 0.04 0.02 0.01 0.01 0.03 0.04 0.04 0.06 0.08
0.06 0.03 0.01 0.01 0.03 0.07 0.08 0.06 0.08 0.09 0.09 0.11 0.08 0.08 0.10 0.10 0.06 0.09 0.10 0.12 0.12 0.14 0.12 0.09 0.07 0.05 0.06 0.06 0.04 0.03 0.01 0.00 0.01 0.01 0.01 0.02 0.02 0.01 0.01 0.02 0.03 0.02 0.01 0.01 0.01 0.03 0.05 0.05 0.05 0.04 0.04 0.05 0.07 0.13
0.03 0.04 0.07 0.09 0.14 0.13 0.13 0.12 0.14 0.12 0.11 0.11 0.10 0.10 0.11 0.09 0.09 0.09 0.10 0.11 0.10 0.08 0.05 0.03 0.02 0.01 0.02 0.03 0.03 0.01 0.01 0.00 0.00 0.00 0.01 0.03 0.01 0.00 0.00 0.00 0.00 0.00 0.00 0.00 0.01 0.02 0.03 0.06 0.06 0.05 0.06 0.09 0.12 0.11
0.07 0.08 0.08 0.08 0.10 0.07 0.07 0.08 0.09 0.10 0.10 0.09 0.07 0.04 0.04 0.04 0.08 0.09 0.09 0.08 0.07 0.04 0.03 0.03 0.05 0.03 0.03 0.01 0.01 0.01 0.00 0.00 0.00 0.00 0.00 0.00 0.00 0.01 0.00 0.00 0.00 0.00 0.01 0.01 0.00 0.00 0.02 0.06 0.06 0.08 0.15 0.15 0.12 0.12
0.05 0.04 0.03 0.02 0.02 0.03 0.05 0.04 0.06 0.05 0.03 0.02 0.02 0.02 0.03 0.06 0.10 0.09 0.07 0.05 0.04 0.06 0.06 0.05 0.04 0.02 0.02 0.01 0.00 0.01 0.02 0.01 0.00 0.01 0.01 0.01 0.01 0.01 0.01 0.01 0.01 0.01 0.01 0.01 0.01 0.01 0.00 0.01 0.02 0.08 0.08 0.06 0.09 0.10
0.01 0.01 0.00 0.01 0.03 0.04 0.03 0.01 0.04 0.06 0.05 0.04 0.03 0.03 0.05 0.06 0.08 0.06 0.05 0.06 0.04 0.03 0.02 0.01 0.01 0.01 0.00 0.00 0.01 0.00 0.01 0.01 0.00 0.01 0.01 0.01 0.02 0.01 0.01 0.01 0.01 0.01 0.01 0.01 0.01 0.01 0.03 0.03 0.04 0.07 0.05 0.04 0.06 0.06
0.00 0.01 0.01 0.01 0.03 0.02 0.00 0.01 0.02 0.04 0.04 0.04 0.05 0.03 0.05 0.04 0.04 0.05 0.05 0.04 0.02 0.01 0.01 0.01 0.01 0.01 0.01 0.01 0.01 0.01 0.02 0.01 0.00 0.00 0.01 0.02 0.01 0.01 0.01 0.01 0.01 0.02 0.02 0.01 0.01 0.02 0.04 0.04 0.04 0.04 0.06 0.05 0.06 0.05
0.01 0.01 0.01 0.01 0.01 0.01 0.01 0.01 0.00 0.01 0.03 0.04 0.07 0.06 0.06 0.04 0.05 0.06 0.05 0.02 0.02 0.01 0.01 0.01 0.01 0.01 0.01 0.00 0.00 0.00 0.00 0.00 0.00 0.00 0.01 0.02 0.01 0.00 0.00 0.01 0.01 0.01 0.01 0.01 0.01 0.03 0.03 0.03 0.03 0.04 0.04 0.05 0.05 0.04

GFSWCAN_prec_precacc24_045.txt.gz
Total_Precipitation_Accumulation
0.19 0.25 0.19 0.09 0.04 0.05 0.09 0.14 0.14 0.15 0.13 0.09 0.08 0.07 0.02 0.04 0.12 0.34 0.19 0.21 0.81 0.21 0.02 0.00 0.00 0.00 0.01 0.16 0.35 0.14 0.12 0.09 0.05 0.02 0.01 0.00 0.01 0.00 0.00 0.00 0.00 0.00 0.00 0.00 0.00 0.00 0.00 0.00 0.00 0.00 0.00 0.00 0.00 0.00
0.28 0.18 0.12 0.08 0.08 0.09 0.12 0.15 0.15 0.15 0.08 0.06 0.08 0.06 0.06 0.06 0.22 0.38 0.26 0.20 0.81 0.55 0.10 0.03 0.01 0.00 0.00 0.06 0.26 0.04 0.07 0.05 0.01 0.00 0.01 0.02 0.00 0.00 0.00 0.00 0.00 0.00 0.00 0.00 0.00 0.00 0.00 0.00 0.00 0.00 0.00 0.00 0.00 0.00
0.15 0.13 0.13 0.11 0.10 0.10 0.14 0.18 0.16 0.14 0.08 0.06 0.07 0.07 0.06 0.12 0.31 0.35 0.29 0.36 1.15 1.01 0.31 0.08 0.04 0.03 0.04 0.04 0.10 0.08 0.02 0.01 0.00 0.00 0.00 0.01 0.01 0.00 0.00 0.00 0.00 0.00 0.00 0.00 0.00 0.00 0.00 0.00 0.00 0.00 0.00 0.00 0.00 0.00
0.17 0.13 0.10 0.10 0.10 0.11 0.14 0.18 0.13 0.12 0.11 0.06 0.06 0.07 0.07 0.31 0.27 0.34 0.49 0.62 0.92 0.99 0.69 0.16 0.05 0.03 0.05 0.02 0.02 0.05 0.02 0.00 0.00 0.00 0.00 0.01 0.01 0.00 0.00 0.00 0.00 0.00 0.00 0.00 0.00 0.00 0.00 0.00 0.00 0.00 0.00 0.00 0.00 0.00
0.18 0.13 0.11 0.10 0.10 0.10 0.13 0.18 0.13 0.11 0.13 0.07 0.07 0.08 0.31 0.34 0.24 0.52 0.66 0.78 0.71 0.74 0.57 0.19 0.03 0.00 0.02 0.04 0.01 0.01 0.03 0.00 0.00 0.00 0.01 0.01 0.00 0.00 0.00 0.00 0.00 0.00 0.00 0.00 0.00 0.00 0.00 0.00 0.00 0.00 0.00 0.00 0.00 0.00
0.29 0.20 0.13 0.08 0.09 0.11 0.16 0.22 0.19 0.16 0.10 0.09 0.09 0.24 0.38 0.37 0.49 0.61 0.54 0.36 0.56 0.29 0.13 0.06 0.03 0.02 0.00 0.01 0.00 0.03 0.02 0.00 0.00 0.00 0.00 0.00 0.00 0.00 0.00 0.00 0.00 0.00 0.00 0.00 0.00 0.00 0.00 0.00 0.00 0.00 0.00 0.00 0.00 0.00
0.52 0.39 0.28 0.15 0.12 0.14 0.19 0.22 0.20 0.16 0.08 0.10 0.19 0.35 0.45 0.36 0.35 0.39 0.29 0.21 0.32 0.18 0.05 0.03 0.03 0.02 0.05 0.02 0.02 0.01 0.02 0.01 0.01 0.00 0.00 0.00 0.00 0.00 0.00 0.00 0.00 0.00 0.00 0.00 0.00 0.00 0.00 0.00 0.00 0.00 0.00 0.00 0.00 0.00
0.61 0.41 0.26 0.17 0.15 0.14 0.14 0.15 0.14 0.08 0.09 0.14 0.25 0.38 0.29 0.31 0.28 0.15 0.03 0.01 0.03 0.05 0.03 0.04 0.02 0.03 0.02 0.03 0.02 0.01 0.02 0.02 0.01 0.00 0.01 0.00 0.00 0.00 0.00 0.00 0.00 0.00 0.00 0.00 0.00 0.00 0.00 0.00 0.00 0.00 0.00 0.00 0.00 0.01
0.27 0.19 0.15 0.12 0.13 0.16 0.15 0.15 0.09 0.06 0.06 0.09 0.21 0.30 0.27 0.30 0.22 0.03 0.00 0.00 0.00 0.02 0.02 0.01 0.02 0.01 0.01 0.01 0.01 0.01 0.01 0.02 0.01 0.00 0.01 0.00 0.00 0.00 0.00 0.00 0.00 0.00 0.00 0.00 0.00 0.00 0.00 0.00 0.00 0.00 0.01 0.01 0.06 0.15
0.15 0.13 0.12 0.08 0.09 0.15 0.16 0.09 0.05 0.03 0.04 0.11 0.23 0.23 0.24 0.12 0.04 0.01 0.01 0.01 0.01 0.00 0.00 0.00 0.01 0.00 0.00 0.01 0.01 0.01 0.01 0.01 0.00 0.00 0.00 0.00 0.00 0.00 0.00 0.00 0.00 0.00 0.00 0.00 0.00 0.00 0.00 0.02 0.02 0.05 0.12 0.14 0.13 0.11
0.18 0.16 0.14 0.10 0.06 0.06 0.12 0.06 0.04 0.04 0.04 0.07 0.21 0.16 0.09 0.03 0.01 0.01 0.00 0.01 0.02 0.00 0.00 0.00 0.00 0.00 0.00 0.04 0.04 0.02 0.01 0.01 0.00 0.00 0.00 0.01 0.00 0.00 0.00 0.00 0.00 0.00 0.00 0.00 0.00 0.00 0.01 0.06 0.13 0.16 0.15 0.11 0.08 0.03
0.23 0.18 0.21 0.14 0.02 0.01 0.06 0.10 0.05 0.03 0.06 0.08 0.09 0.03 0.06 0.04 0.04 0.03 0.01 0.00 0.00 0.01 0.00 0.00 0.00 0.00 0.00 0.01 0.01 0.01 0.00 0.00 0.00 0.00 0.01 0.01 0.01 0.00 0.00 0.00 0.00 0.00 0.00 0.00 0.03 0.09 0.14 0.17 0.16 0.11 0.06 0.02 0.00 0.00
0.22 0.16 0.16 0.11 0.06 0.03 0.05 0.09 0.10 0.09 0.08 0.07 0.08 0.09 0.14 0.20 0.13 0.08 0.03 0.01 0.00 0.00 0.00 0.01 0.00 0.00 0.00 0.00 0.07 0.09 0.10 0.04 0.01 0.04 0.05 0.07 0.03 0.04 0.04 0.02 0.01 0.02 0.04 0.08 0.10 0.09 0.06 0.03 0.01 0.00 0.00 0.00 0.00 0.00
0.15 0.15 0.12 0.09 0.09 0.07 0.04 0.04 0.07 0.10 0.10 0.17 0.19 0.21 0.14 0.16 0.09 0.07 0.02 0.01 0.02 0.02 0.01 0.01 0.00 0.01 0.01 0.08 0.22 0.25 0.27 0.15 0.18 0.11 0.07 0.15 0.23 0.13 0.02 0.00 0.00 0.00 0.00 0.00 0.00 0.00 0.00 0.00 0.00 0.00 0.00 0.00 0.00 0.00
0.02 0.04 0.07 0.10 0.10 0.12 0.08 0.06 0.04 0.04 0.15 0.19 0.14 0.17 0.11 0.03 0.03 0.02 0.02 0.02 0.04 0.06 0.06 0.08 0.10 0.09 0.13 0.20 0.20 0.21 0.18 0.16 0.16 0.13 0.14 0.24 0.15 0.02 0.01 0.01 0.01 0.00 0.00 0.00 0.00 0.00 0.00 0.00 0.00 0.00 0.00 0.00 0.00 0.00
0.00 0.01 0.02 0.05 0.07 0.07 0.05 0.04 0.03 0.07 0.20 0.18 0.13 0.05 0.05 0.02 0.04 0.04 0.06 0.06 0.06 0.07 0.11 0.15 0.14 0.16 0.24 0.22 0.14 0.13 0.16 0.16 0.15 0.08 0.03 0.03 0.03 0.04 0.04 0.06 0.02 0.00 0.00 0.00 0.00 0.00 0.00 0.00 0.00 0.00 0.00 0.00 0.00 0.00
0.00 0.00 0.00 0.00 0.00 0.01 0.00 0.01 0.06 0.16 0.24 0.16 0.19 0.16 0.08 0.05 0.06 0.06 0.05 0.06 0.05 0.05 0.05 0.04 0.05 0.07 0.10 0.12 0.14 0.14 0.17 0.10 0.06 0.03 0.02 0.02 0.02 0.03 0.04 0.01 0.00 0.00 0.00 0.00 0.00 0.00 0.00 0.00 0.00 0.00 0.00 0.00 0.00 0.00
0.00 0.00 0.00 0.00 0.00 0.00 0.00 0.02 0.05 0.03 0.05 0.11 0.13 0.19 0.15 0.19 0.15 0.11 0.07 0.03 0.02 0.02 0.02 0.02 0.02 0.04 0.09 0.09 0.10 0.06 0.03 0.05 0.07 0.07 0.07 0.05 0.02 0.02 0.01 0.00 0.00 0.00 0.00 0.00 0.00 0.00 0.00 0.00 0.00 0.00 0.00 0.00 0.00 0.00
0.00 0.00 0.00 0.00 0.00 0.00 0.00 0.00 0.02 0.05 0.09 0.11 0.15 0.14 0.11 0.13 0.13 0.11 0.09 0.07 0.06 0.05 0.05 0.07 0.08 0.09 0.11 0.10 0.09 0.07 0.06 0.04 0.05 0.06 0.07 0.07 0.05 0.03 0.01 0.01 0.01 0.00 0.00 0.00 0.00 0.00 0.00 0.00 0.00 0.00 0.00 0.00 0.00 0.00
0.00 0.00 0.00 0.00 0.00 0.00 0.00 0.00 0.00 0.02 0.07 0.08 0.11 0.10 0.07 0.09 0.06 0.04 0.02 0.02 0.02 0.02 0.04 0.08 0.14 0.14 0.14 0.15 0.11 0.05 0.03 0.01 0.01 0.02 0.06 0.07 0.05 0.02 0.02 0.01 0.00 0.00 0.00 0.00 0.00 0.00 0.00 0.00 0.00 0.00 0.00 0.00 0.00 0.00
0.00 0.00 0.00 0.00 0.00 0.00 0.00 0.00 0.00 0.01 0.02 0.04 0.04 0.01 0.03 0.02 0.02 0.02 0.01 0.00 0.00 0.03 0.08 0.12 0.12 0.13 0.11 0.11 0.07 0.03 0.01 0.00 0.00 0.00 0.01 0.02 0.02 0.01 0.00 0.00 0.00 0.00 0.00 0.00 0.00 0.00 0.00 0.00 0.00 0.00 0.00 0.00 0.00 0.00
0.00 0.00 0.00 0.00 0.01 0.00 0.00 0.00 0.01 0.00 0.01 0.02 0.01 0.00 0.02 0.03 0.02 0.02 0.00 0.00 0.03 0.08 0.09 0.12 0.09 0.05 0.05 0.06 0.08 0.07 0.07 0.02 0.02 0.01 0.01 0.01 0.01 0.01 0.02 0.02 0.00 0.00 0.00 0.00 0.00 0.00 0.00 0.00 0.00 0.00 0.01 0.01 0.00 0.01
0.00 0.00 0.00 0.01 0.01 0.00 0.01 0.00 0.00 0.01 0.01 0.01 0.01 0.01 0.01 0.02 0.02 0.01 0.02 0.03 0.09 0.14 0.10 0.08 0.09 0.07 0.06 0.04 0.02 0.02 0.03 0.03 0.04 0.05 0.05 0.04 0.03 0.03 0.02 0.03 0.02 0.01 0.01 0.00 0.00 0.00 0.00 0.00 0.00 0.00 0.00 0.01 0.02 0.02
0.00 0.00 0.00 0.02 0.03 0.02 0.03 0.01 0.01 0.01 0.01 0.02 0.01 0.01 0.02 0.02 0.01 0.01 0.04 0.08 0.12 0.09 0.10 0.13 0.13 0.12 0.08 0.06 0.06 0.06 0.06 0.02 0.02 0.04 0.04 0.01 0.02 0.02 0.01 0.01 0.01 0.00 0.00 0.00 0.00 0.00 0.00 0.00 0.00 0.02 0.02 0.02 0.00 0.02
0.00 0.00 0.00 0.02 0.02 0.02 0.01 0.02 0.02 0.02 0.02 0.02 0.02 0.02 0.02 0.01 0.02 0.03 0.05 0.13 0.09 0.09 0.10 0.12 0.10 0.11 0.12 0.13 0.12 0.10 0.08 0.06 0.04 0.04 0.05 0.03 0.02 0.01 0.00 0.00 0.00 0.00 0.00 0.00 0.01 0.00 0.00 0.00 0.00 0.01 0.00 0.01 0.03 0.05
0.02 0.01 0.01 0.02 0.02 0.02 0.02 0.02 0.02 0.03 0.03 0.05 0.06 0.05 0.03 0.06 0.04 0.06 0.08 0.15 0.12 0.13 0.14 0.16 0.16 0.11 0.11 0.11 0.10 0.09 0.06 0.06 0.03 0.03 0.04 0.03 0.03 0.02 0.01 0.01 0.01 0.01 0.00 0.01 0.02 0.01 0.01 0.00 0.00 0.00 0.01 0.01 0.03 0.05
0.03 0.02 0.01 0.01 0.02 0.06 0.06 0.05 0.08 0.09 0.09 0.12 0.09 0.08 0.12 0.11 0.07 0.10 0.11 0.12 0.13 0.15 0.13 0.10 0.07 0.06 0.07 0.07 0.05 0.03 0.02 0.01 0.01 0.01 0.02 0.01 0.00 0.00 0.00 0.00 0.01 0.01 0.00 0.00 0.01 0.02 0.02 0.02 0.02 0.01 0.01 0.02 0.04 0.08
0.03 0.04 0.06 0.09 0.13 0.13 0.13 0.12 0.15 0.13 0.12 0.12 0.12 0.10 0.12 0.09 0.10 0.10 0.11 0.13 0.13 0.08 0.05 0.03 0.02 0.02 0.02 0.03 0.03 0.02 0.01 0.01 0.00 0.00 0.01 0.01 0.00 0.00 0.00 0.00 0.00 0.00 0.00 0.00 0.00 0.01 0.01 0.02 0.03 0.03 0.04 0.06 0.07 0.07
0.07 0.08 0.08 0.08 0.10 0.07 0.07 0.09 0.10 0.11 0.11 0.10 0.08 0.04 0.05 0.05 0.10 0.11 0.12 0.10 0.08 0.06 0.04 0.04 0.07 0.05 0.03 0.01 0.01 0.00 0.00 0.00 0.00 0.00 0.00 0.01 0.01 0.01 0.00 0.00 0.00 0.00 0.00 0.00 0.00 0.00 0.01 0.02 0.04 0.06 0.10 0.11 0.08 0.07
0.05 0.04 0.03 0.02 0.02 0.04 0.06 0.05 0.07 0.05 0.03 0.03 0.03 0.03 0.03 0.07 0.11 0.10 0.07 0.05 0.05 0.06 0.06 0.05 0.04 0.03 0.03 0.02 0.01 0.01 0.01 0.00 0.00 0.00 0.00 0.01 0.01 0.01 0.01 0.01 0.01 0.01 0.01 0.01 0.01 0.01 0.00 0.00 0.00 0.03 0.04 0.05 0.07 0.05
0.01 0.01 0.01 0.01 0.03 0.05 0.03 0.03 0.06 0.06 0.06 0.04 0.04 0.03 0.05 0.06 0.08 0.06 0.05 0.07 0.03 0.04 0.04 0.02 0.01 0.00 0.00 0.00 0.00 0.00 0.01 0.00 0.00 0.01 0.00 0.01 0.01 0.01 0.01 0.01 0.01 0.01 0.01 0.01 0.01 0.00 0.01 0.01 0.02 0.02 0.02 0.02 0.03 0.04
0.01 0.01 0.01 0.01 0.03 0.02 0.00 0.02 0.04 0.07 0.06 0.05 0.05 0.04 0.06 0.05 0.04 0.05 0.05 0.05 0.03 0.01 0.01 0.01 0.01 0.01 0.01 0.01 0.01 0.01 0.00 0.00 0.00 0.00 0.00 0.01 0.01 0.01 0.01 0.01 0.01 0.02 0.02 0.01 0.01 0.01 0.02 0.02 0.01 0.01 0.02 0.03 0.03 0.03
0.01 0.01 0.01 0.01 0.01 0.02 0.01 0.01 0.01 0.01 0.03 0.04 0.06 0.06 0.06 0.04 0.04 0.06 0.06 0.03 0.02 0.01 0.01 0.01 0.01 0.02 0.01 0.00 0.00 0.00 0.00 0.00 0.00 0.00 0.01 0.01 0.00 0.00 0.00 0.01 0.01 0.01 0.01 0.00 0.00 0.01 0.01 0.01 0.01 0.01 0.01 0.02 0.02 0.02

GFSWCAN_prec_precacc24_048.txt.gz
Total_Precipitation_Accumulation
0.20 0.26 0.19 0.09 0.05 0.05 0.09 0.15 0.16 0.21 0.18 0.16 0.19 0.22 0.06 0.06 0.15 0.35 0.19 0.28 0.92 0.26 0.05 0.03 0.01 0.00 0.01 0.17 0.35 0.14 0.14 0.14 0.13 0.10 0.04 0.01 0.01 0.00 0.00 0.00 0.00 0.00 0.00 0.00 0.00 0.00 0.00 0.00 0.00 0.00 0.00 0.00 0.00 0.00
0.29 0.19 0.12 0.09 0.08 0.09 0.12 0.15 0.16 0.21 0.13 0.12 0.16 0.19 0.09 0.08 0.23 0.39 0.26 0.23 0.89 0.63 0.18 0.05 0.04 0.00 0.00 0.06 0.27 0.05 0.07 0.07 0.05 0.04 0.02 0.02 0.00 0.00 0.00 0.00 0.00 0.00 0.00 0.00 0.00 0.00 0.00 0.00 0.00 0.00 0.00 0.00 0.00 0.00
0.15 0.14 0.13 0.12 0.11 0.11 0.14 0.18 0.17 0.20 0.15 0.13 0.13 0.12 0.08 0.13 0.32 0.35 0.29 0.36 1.20 1.06 0.46 0.11 0.06 0.04 0.05 0.05 0.13 0.10 0.02 0.02 0.02 0.07 0.04 0.03 0.01 0.00 0.00 0.00 0.00 0.00 0.00 0.00 0.00 0.00 0.00 0.00 0.00 0.00 0.00 0.00 0.00 0.00
0.16 0.14 0.11 0.10 0.10 0.11 0.14 0.18 0.14 0.15 0.15 0.09 0.09 0.08 0.08 0.33 0.27 0.34 0.50 0.64 0.99 1.02 0.79 0.24 0.09 0.06 0.05 0.03 0.04 0.05 0.03 0.01 0.01 0.02 0.03 0.05 0.02 0.00 0.00 0.00 0.00 0.00 0.00 0.00 0.00 0.00 0.00 0.00 0.00 0.00 0.00 0.00 0.00 0.00
0.12 0.11 0.10 0.10 0.10 0.10 0.13 0.18 0.14 0.12 0.15 0.08 0.07 0.08 0.32 0.35 0.25 0.54 0.71 0.83 0.80 0.79 0.76 0.42 0.24 0.08 0.06 0.05 0.04 0.03 0.06 0.05 0.02 0.01 0.02 0.01 0.00 0.00 0.00 0.00 0.00 0.00 0.00 0.00 0.00 0.00 0.00 0.00 0.00 0.00 0.00 0.00 0.00 0.00
0.16 0.11 0.09 0.08 0.09 0.11 0.16 0.22 0.19 0.16 0.10 0.09 0.09 0.24 0.39 0.38 0.52 0.72 0.66 0.45 0.85 0.66 0.50 0.69 0.38 0.26 0.14 0.17 0.09 0.13 0.12 0.11 0.06 0.01 0.00 0.00 0.00 0.00 0.00 0.00 0.00 0.00 0.00 0.00 0.00 0.00 0.00 0.00 0.00 0.00 0.00 0.00 0.00 0.00
0.39 0.29 0.20 0.12 0.14 0.17 0.22 0.24 0.21 0.15 0.08 0.10 0.19 0.36 0.51 0.48 0.47 0.54 0.51 0.52 0.73 0.60 0.45 0.41 0.57 0.32 0.39 0.17 0.27 0.09 0.13 0.11 0.12 0.03 0.00 0.00 0.00 0.00 0.00 0.00 0.00 0.00 0.00 0.00 0.00 0.00 0.00 0.00 0.00 0.00 0.00 0.00 0.00 0.00
0.53 0.35 0.23 0.18 0.21 0.21 0.21 0.20 0.17 0.10 0.10 0.15 0.28 0.48 0.46 0.48 0.46 0.40 0.26 0.36 0.69 0.68 0.42 0.23 0.28 0.25 0.23 0.12 0.16 0.15 0.05 0.07 0.06 0.05 0.02 0.00 0.00 0.00 0.00 0.00 0.00 0.00 0.00 0.00 0.00 0.00 0.00 0.00 0.00 0.00 0.00 0.00 0.00 0.01
0.32 0.21 0.17 0.16 0.19 0.23 0.22 0.21 0.13 0.09 0.11 0.22 0.44 0.59 0.69 0.71 0.63 0.43 0.22 0.23 0.50 0.54 0.31 0.11 0.11 0.09 0.04 0.02 0.02 0.07 0.05 0.04 0.02 0.02 0.01 0.00 0.00 0.00 0.00 0.00 0.00 0.00 0.00 0.00 0.00 0.00 0.00 0.00 0.00 0.00 0.01 0.01 0.06 0.15
0.22 0.19 0.17 0.13 0.16 0.20 0.20 0.15 0.13 0.13 0.22 0.44 0.67 0.79 0.83 0.56 0.31 0.27 0.25 0.15 0.08 0.04 0.01 0.01 0.01 0.00 0.01 0.01 0.01 0.03 0.03 0.02 0.00 0.01 0.01 0.00 0.00 0.00 0.00 0.00 0.00 0.00 0.00 0.00 0.00 0.00 0.00 0.01 0.02 0.05 0.12 0.14 0.13 0.11
0.20 0.19 0.17 0.13 0.09 0.10 0.17 0.14 0.15 0.20 0.35 0.54 0.72 0.65 0.36 0.20 0.20 0.19 0.11 0.04 0.03 0.00 0.00 0.00 0.00 0.00 0.00 0.04 0.05 0.03 0.03 0.02 0.00 0.00 0.00 0.01 0.00 0.00 0.01 0.01 0.00 0.00 0.00 0.00 0.00 0.00 0.01 0.06 0.13 0.16 0.15 0.11 0.08 0.03
0.25 0.20 0.23 0.16 0.03 0.03 0.10 0.15 0.12 0.15 0.25 0.25 0.25 0.13 0.11 0.07 0.03 0.01 0.00 0.00 0.00 0.01 0.00 0.00 0.01 0.00 0.00 0.01 0.03 0.02 0.03 0.02 0.01 0.00 0.01 0.01 0.01 0.01 0.01 0.01 0.00 0.00 0.00 0.00 0.03 0.08 0.14 0.17 0.16 0.11 0.06 0.02 0.00 0.00
0.24 0.19 0.18 0.14 0.08 0.04 0.07 0.13 0.16 0.12 0.10 0.07 0.03 0.03 0.05 0.05 0.03 0.01 0.01 0.00 0.00 0.00 0.00 0.01 0.00 0.00 0.01 0.00 0.06 0.08 0.08 0.03 0.01 0.03 0.05 0.07 0.03 0.04 0.04 0.02 0.01 0.02 0.04 0.08 0.10 0.09 0.06 0.03 0.01 0.00 0.00 0.00 0.00 0.00
0.18 0.18 0.14 0.12 0.14 0.14 0.09 0.06 0.07 0.09 0.10 0.16 0.15 0.13 0.07 0.09 0.05 0.04 0.01 0.00 0.01 0.01 0.00 0.00 0.00 0.00 0.01 0.05 0.14 0.15 0.16 0.09 0.12 0.08 0.06 0.13 0.18 0.10 0.02 0.00 0.00 0.00 0.00 0.00 0.00 0.00 0.00 0.00 0.00 0.00 0.00 0.00 0.00 0.00
0.03 0.04 0.07 0.10 0.10 0.12 0.08 0.06 0.04 0.04 0.15 0.19 0.14 0.16 0.10 0.03 0.03 0.02 0.02 0.02 0.03 0.03 0.02 0.03 0.04 0.04 0.09 0.11 0.11 0.13 0.12 0.10 0.08 0.05 0.07 0.16 0.12 0.02 0.01 0.01 0.01 0.00 0.00 0.00 0.00 0.00 0.00 0.00 0.00 0.00 0.00 0.00 0.00 0.00
0.00 0.01 0.02 0.05 0.07 0.07 0.05 0.04 0.03 0.07 0.20 0.18 0.13 0.05 0.05 0.02 0.05 0.05 0.05 0.05 0.04 0.04 0.07 0.10 0.08 0.09 0.16 0.15 0.08 0.07 0.08 0.07 0.06 0.04 0.02 0.03 0.03 0.04 0.04 0.05 0.02 0.00 0.00 0.00 0.00 0.00 0.00 0.00 0.00 0.00 0.00 0.00 0.00 0.00
0.00 0.00 0.00 0.00 0.00 0.01 0.00 0.01 0.07 0.19 0.26 0.16 0.21 0.18 0.09 0.06 0.07 0.08 0.07 0.06 0.04 0.04 0.04 0.04 0.04 0.05 0.07 0.08 0.09 0.09 0.10 0.06 0.05 0.03 0.02 0.03 0.02 0.03 0.05 0.02 0.01 0.02 0.01 0.00 0.00 0.00 0.00 0.00 0.00 0.00 0.00 0.00 0.00 0.00
0.00 0.00 0.00 0.00 0.00 0.00 0.00 0.02 0.07 0.07 0.09 0.16 0.18 0.27 0.22 0.27 0.21 0.16 0.12 0.07 0.04 0.05 0.05 0.07 0.05 0.07 0.10 0.08 0.09 0.06 0.05 0.06 0.08 0.09 0.09 0.07 0.03 0.03 0.02 0.01 0.02 0.01 0.00 0.00 0.00 0.00 0.00 0.00 0.00 0.00 0.00 0.00 0.00 0.00
0.00 0.00 0.00 0.00 0.00 0.00 0.00 0.00 0.02 0.06 0.15 0.19 0.24 0.22 0.17 0.21 0.21 0.20 0.15 0.13 0.11 0.09 0.09 0.12 0.13 0.14 0.16 0.18 0.18 0.14 0.12 0.09 0.10 0.12 0.14 0.12 0.07 0.04 0.03 0.03 0.04 0.02 0.00 0.00 0.00 0.00 0.00 0.00 0.00 0.00 0.00 0.00 0.00 0.00
0.00 0.00 0.00 0.00 0.00 0.00 0.00 0.00 0.00 0.02 0.10 0.14 0.18 0.16 0.12 0.16 0.12 0.06 0.04 0.04 0.03 0.03 0.06 0.12 0.20 0.23 0.25 0.26 0.20 0.13 0.09 0.07 0.04 0.06 0.12 0.15 0.11 0.06 0.05 0.03 0.01 0.00 0.00 0.00 0.00 0.00 0.00 0.00 0.00 0.00 0.00 0.00 0.00 0.00
0.00 0.00 0.00 0.00 0.00 0.00 0.00 0.00 0.01 0.02 0.04 0.07 0.08 0.03 0.07 0.05 0.03 0.01 0.00 0.00 0.01 0.06 0.16 0.22 0.22 0.25 0.26 0.22 0.16 0.08 0.06 0.03 0.03 0.01 0.02 0.06 0.06 0.02 0.02 0.02 0.01 0.00 0.00 0.00 0.00 0.00 0.00 0.00 0.00 0.00 0.00 0.00 0.00 0.00
0.00 0.00 0.00 0.00 0.00 0.00 0.00 0.00 0.01 0.00 0.01 0.03 0.01 0.01 0.03 0.05 0.04 0.02 0.00 0.01 0.06 0.15 0.16 0.20 0.16 0.13 0.13 0.14 0.16 0.12 0.11 0.03 0.02 0.02 0.02 0.02 0.03 0.03 0.04 0.04 0.01 0.02 0.03 0.03 0.02 0.01 0.00 0.00 0.00 0.00 0.00 0.00 0.00 0.01
0.00 0.00 0.00 0.00 0.00 0.00 0.00 0.00 0.00 0.01 0.01 0.01 0.01 0.01 0.02 0.03 0.04 0.01 0.02 0.05 0.14 0.21 0.16 0.13 0.13 0.10 0.10 0.09 0.05 0.06 0.09 0.07 0.07 0.08 0.07 0.06 0.06 0.07 0.06 0.07 0.06 0.05 0.04 0.03 0.01 0.01 0.00 0.00 0.00 0.00 0.00 0.00 0.01 0.02
0.00 0.00 0.00 0.00 0.00 0.00 0.01 0.01 0.01 0.01 0.01 0.02 0.01 0.01 0.02 0.02 0.01 0.01 0.05 0.10 0.17 0.12 0.11 0.17 0.15 0.13 0.08 0.06 0.07 0.09 0.11 0.04 0.05 0.06 0.07 0.03 0.04 0.05 0.04 0.04 0.03 0.02 0.02 0.01 0.00 0.00 0.00 0.00 0.00 0.00 0.00 0.00 0.00 0.01
0.00 0.00 0.00 0.00 0.00 0.00 0.01 0.01 0.02 0.02 0.02 0.02 0.02 0.02 0.02 0.02 0.02 0.03 0.06 0.14 0.10 0.09 0.12 0.13 0.11 0.11 0.12 0.14 0.13 0.11 0.09 0.07 0.05 0.05 0.07 0.04 0.04 0.03 0.03 0.03 0.02 0.01 0.00 0.00 0.00 0.00 0.00 0.00 0.00 0.00 0.00 0.01 0.01 0.01
0.01 0.01 0.01 0.01 0.01 0.01 0.01 0.01 0.01 0.03 0.03 0.05 0.06 0.05 0.04 0.06 0.04 0.07 0.09 0.16 0.13 0.14 0.15 0.17 0.16 0.11 0.11 0.11 0.10 0.10 0.08 0.08 0.03 0.03 0.05 0.03 0.03 0.03 0.02 0.02 0.01 0.00 0.00 0.00 0.01 0.01 0.00 0.00 0.00 0.00 0.00 0.00 0.01 0.03
0.02 0.02 0.01 0.01 0.02 0.03 0.04 0.03 0.05 0.06 0.06 0.10 0.09 0.09 0.14 0.11 0.08 0.11 0.12 0.12 0.13 0.15 0.13 0.11 0.07 0.06 0.07 0.08 0.05 0.04 0.02 0.01 0.01 0.01 0.01 0.00 0.00 0.00 0.00 0.00 0.00 0.00 0.00 0.00 0.00 0.01 0.01 0.01 0.01 0.01 0.01 0.01 0.02 0.04
0.03 0.03 0.04 0.04 0.07 0.09 0.09 0.09 0.12 0.12 0.11 0.11 0.13 0.10 0.12 0.10 0.11 0.12 0.13 0.16 0.13 0.07 0.04 0.03 0.02 0.02 0.02 0.03 0.03 0.02 0.02 0.01 0.00 0.00 0.00 0.01 0.00 0.00 0.00 0.00 0.00 0.00 0.00 0.00 0.00 0.01 0.01 0.02 0.02 0.02 0.03 0.04 0.03 0.03
0.06 0.06 0.06 0.06 0.08 0.07 0.07 0.09 0.11 0.12 0.11 0.11 0.09 0.05 0.05 0.06 0.12 0.13 0.13 0.11 0.10 0.06 0.04 0.05 0.08 0.05 0.04 0.01 0.00 0.00 0.00 0.00 0.00 0.00 0.00 0.01 0.02 0.01 0.00 0.01 0.01 0.00 0.01 0.01 0.00 0.00 0.01 0.02 0.03 0.03 0.04 0.05 0.03 0.04
0.05 0.04 0.03 0.02 0.02 0.04 0.07 0.05 0.07 0.06 0.03 0.03 0.03 0.03 0.03 0.08 0.13 0.11 0.08 0.06 0.05 0.06 0.06 0.05 0.05 0.03 0.03 0.02 0.01 0.01 0.01 0.00 0.00 0.00 0.00 0.00 0.01 0.01 0.01 0.02 0.01 0.01 0.01 0.01 0.01 0.01 0.00 0.00 0.00 0.00 0.01 0.02 0.02 0.02
0.01 0.01 0.01 0.01 0.03 0.05 0.05 0.04 0.06 0.06 0.06 0.04 0.04 0.03 0.04 0.07 0.08 0.06 0.05 0.07 0.04 0.04 0.03 0.02 0.00 0.00 0.00 0.00 0.00 0.00 0.01 0.01 0.00 0.00 0.00 0.00 0.01 0.01 0.01 0.01 0.01 0.01 0.01 0.01 0.01 0.01 0.01 0.01 0.01 0.01 0.01 0.01 0.01 0.01
0.01 0.01 0.01 0.01 0.03 0.02 0.02 0.05 0.06 0.09 0.07 0.05 0.05 0.04 0.06 0.05 0.04 0.05 0.05 0.05 0.02 0.01 0.01 0.01 0.01 0.02 0.01 0.01 0.01 0.00 0.00 0.00 0.00 0.00 0.00 0.01 0.01 0.01 0.01 0.01 0.01 0.01 0.01 0.01 0.01 0.01 0.01 0.01 0.01 0.01 0.01 0.01 0.01 0.00
0.01 0.01 0.01 0.01 0.02 0.03 0.01 0.01 0.01 0.02 0.03 0.04 0.05 0.05 0.06 0.04 0.04 0.07 0.06 0.03 0.02 0.01 0.01 0.01 0.01 0.02 0.01 0.00 0.00 0.00 0.00 0.00 0.00 0.00 0.01 0.01 0.01 0.01 0.00 0.01 0.01 0.01 0.01 0.01 0.00 0.00 0.01 0.01 0.01 0.01 0.01 0.00 0.00 0.00

GFSWCAN_prec_precacc24_054.txt.gz
Total_Precipitation_Accumulation
0.37 0.47 0.40 0.27 0.20 0.19 0.21 0.24 0.22 0.24 0.19 0.18 0.20 0.22 0.07 0.08 0.22 0.47 0.44 0.41 1.00 0.34 0.08 0.07 0.06 0.01 0.01 0.17 0.35 0.14 0.14 0.14 0.15 0.15 0.08 0.03 0.01 0.00 0.00 0.00 0.00 0.00 0.00 0.00 0.00 0.00 0.00 0.00 0.00 0.00 0.00 0.00 0.00 0.00
0.39 0.31 0.24 0.20 0.17 0.18 0.18 0.20 0.19 0.23 0.15 0.13 0.17 0.21 0.12 0.12 0.33 0.52 0.43 0.40 0.95 0.69 0.25 0.07 0.06 0.01 0.01 0.06 0.27 0.05 0.07 0.07 0.06 0.07 0.05 0.05 0.01 0.00 0.00 0.00 0.00 0.00 0.00 0.00 0.00 0.00 0.00 0.00 0.00 0.00 0.00 0.00 0.00 0.00
0.20 0.18 0.16 0.15 0.14 0.15 0.19 0.23 0.20 0.22 0.17 0.15 0.21 0.25 0.12 0.21 0.45 0.49 0.44 0.50 1.27 1.12 0.48 0.17 0.09 0.07 0.05 0.05 0.13 0.10 0.02 0.02 0.05 0.10 0.10 0.07 0.04 0.01 0.00 0.00 0.00 0.00 0.00 0.00 0.00 0.00 0.00 0.00 0.00 0.00 0.00 0.00 0.00 0.00
0.17 0.16 0.13 0.12 0.13 0.14 0.18 0.22 0.18 0.22 0.23 0.19 0.32 0.23 0.15 0.46 0.43 0.44 0.64 0.81 1.05 1.09 0.88 0.29 0.13 0.09 0.06 0.04 0.04 0.05 0.03 0.01 0.04 0.10 0.15 0.11 0.08 0.03 0.01 0.00 0.00 0.00 0.00 0.00 0.00 0.00 0.00 0.00 0.00 0.00 0.00 0.00 0.00 0.00
0.13 0.12 0.12 0.12 0.11 0.11 0.15 0.20 0.19 0.22 0.28 0.24 0.43 0.16 0.38 0.51 0.41 0.61 0.83 1.05 0.86 0.81 0.84 0.49 0.27 0.14 0.14 0.10 0.07 0.04 0.07 0.06 0.05 0.06 0.07 0.04 0.02 0.03 0.02 0.01 0.00 0.00 0.00 0.00 0.00 0.00 0.00 0.00 0.00 0.00 0.00 0.00 0.00 0.00
0.16 0.12 0.11 0.10 0.10 0.13 0.18 0.26 0.27 0.26 0.20 0.32 0.32 0.31 0.48 0.52 0.65 0.83 0.85 0.63 0.88 0.69 0.55 0.75 0.40 0.27 0.24 0.31 0.20 0.21 0.13 0.12 0.10 0.03 0.01 0.00 0.00 0.02 0.01 0.00 0.00 0.00 0.00 0.00 0.00 0.00 0.00 0.00 0.00 0.00 0.00 0.00 0.00 0.00
0.34 0.29 0.21 0.14 0.16 0.21 0.25 0.28 0.27 0.24 0.26 0.35 0.26 0.44 0.59 0.57 0.55 0.65 0.60 0.56 0.74 0.63 0.49 0.45 0.60 0.40 0.45 0.33 0.42 0.18 0.22 0.17 0.16 0.06 0.01 0.00 0.00 0.01 0.00 0.00 0.00 0.00 0.00 0.00 0.00 0.00 0.00 0.00 0.00 0.00 0.00 0.00 0.00 0.00
0.42 0.31 0.22 0.19 0.21 0.19 0.21 0.23 0.25 0.25 0.30 0.23 0.36 0.58 0.53 0.54 0.50 0.42 0.31 0.39 0.70 0.75 0.49 0.28 0.31 0.48 0.49 0.37 0.28 0.25 0.27 0.24 0.15 0.15 0.06 0.01 0.00 0.00 0.00 0.00 0.00 0.00 0.00 0.00 0.00 0.00 0.00 0.00 0.00 0.00 0.00 0.00 0.00 0.00
0.22 0.17 0.15 0.16 0.19 0.18 0.23 0.23 0.16 0.12 0.13 0.27 0.53 0.63 0.82 0.79 0.69 0.45 0.40 0.45 0.67 0.74 0.53 0.18 0.15 0.35 0.31 0.49 0.25 0.15 0.19 0.42 0.23 0.12 0.11 0.07 0.04 0.01 0.00 0.00 0.00 0.00 0.00 0.00 0.00 0.00 0.00 0.00 0.00 0.00 0.00 0.00 0.03 0.11
0.16 0.18 0.18 0.14 0.16 0.18 0.18 0.15 0.13 0.13 0.23 0.46 0.74 0.93 1.01 0.63 0.45 0.56 0.78 0.54 0.41 0.27 0.24 0.17 0.10 0.13 0.25 0.21 0.43 0.28 0.14 0.27 0.38 0.24 0.14 0.14 0.08 0.01 0.00 0.00 0.00 0.00 0.00 0.00 0.00 0.00 0.00 0.00 0.00 0.01 0.03 0.05 0.08 0.10
0.15 0.16 0.17 0.14 0.11 0.11 0.18 0.15 0.18 0.26 0.43 0.69 0.95 0.98 0.58 0.42 0.65 0.69 0.62 0.37 0.26 0.11 0.06 0.13 0.11 0.17 0.22 0.16 0.28 0.31 0.36 0.26 0.21 0.27 0.24 0.23 0.11 0.02 0.01 0.01 0.01 0.01 0.00 0.00 0.00 0.00 0.00 0.01 0.02 0.05 0.07 0.05 0.04 0.02
0.21 0.18 0.20 0.15 0.04 0.04 0.11 0.15 0.14 0.22 0.42 0.63 0.78 0.55 0.49 0.47 0.38 0.27 0.27 0.22 0.10 0.04 0.03 0.11 0.08 0.07 0.26 0.26 0.23 0.30 0.26 0.26 0.17 0.07 0.10 0.08 0.05 0.04 0.07 0.06 0.05 0.03 0.02 0.01 0.01 0.01 0.01 0.02 0.03 0.03 0.02 0.01 0.00 0.00
0.31 0.25 0.23 0.15 0.08 0.04 0.08 0.24 0.38 0.46 0.84 0.73 0.39 0.35 0.36 0.25 0.12 0.09 0.07 0.06 0.04 0.02 0.02 0.05 0.08 0.04 0.07 0.25 0.30 0.15 0.13 0.11 0.09 0.07 0.05 0.02 0.02 0.03 0.04 0.03 0.04 0.03 0.02 0.01 0.01 0.01 0.01 0.03 0.04 0.02 0.02 0.01 0.00 0.00
0.30 0.26 0.22 0.24 0.27 0.28 0.27 0.30 0.40 0.81 0.73 0.37 0.30 0.29 0.18 0.08 0.06 0.07 0.05 0.02 0.04 0.03 0.02 0.02 0.03 0.01 0.01 0.03 0.11 0.09 0.07 0.04 0.06 0.03 0.02 0.04 0.04 0.01 0.00 0.00 0.00 0.00 0.00 0.01 0.02 0.03 0.04 0.03 0.01 0.00 0.00 0.00 0.00 0.00
0.16 0.17 0.23 0.33 0.33 0.36 0.39 0.48 0.59 0.53 0.43 0.31 0.17 0.13 0.07 0.08 0.10 0.08 0.05 0.04 0.04 0.03 0.01 0.02 0.03 0.01 0.02 0.04 0.04 0.05 0.04 0.03 0.02 0.01 0.01 0.02 0.02 0.01 0.01 0.00 0.00 0.01 0.02 0.03 0.03 0.03 0.02 0.00 0.00 0.00 0.00 0.00 0.00 0.00
0.17 0.14 0.15 0.23 0.24 0.30 0.36 0.40 0.26 0.18 0.23 0.19 0.16 0.08 0.08 0.05 0.07 0.07 0.07 0.06 0.05 0.04 0.03 0.05 0.06 0.08 0.14 0.07 0.04 0.03 0.03 0.03 0.02 0.01 0.01 0.01 0.03 0.03 0.03 0.01 0.01 0.03 0.03 0.02 0.03 0.02 0.01 0.00 0.00 0.00 0.00 0.00 0.00 0.00
0.12 0.10 0.06 0.07 0.12 0.14 0.13 0.11 0.10 0.20 0.26 0.18 0.26 0.26 0.16 0.11 0.12 0.14 0.13 0.10 0.06 0.04 0.04 0.03 0.03 0.05 0.08 0.07 0.06 0.07 0.08 0.05 0.03 0.03 0.03 0.03 0.03 0.04 0.07 0.07 0.08 0.09 0.06 0.03 0.01 0.01 0.01 0.01 0.00 0.00 0.00 0.00 0.00 0.00
0.06 0.04 0.03 0.08 0.09 0.10 0.12 0.16 0.11 0.07 0.12 0.24 0.27 0.40 0.31 0.39 0.31 0.23 0.19 0.13 0.07 0.07 0.08 0.11 0.09 0.10 0.11 0.10 0.11 0.15 0.17 0.18 0.16 0.16 0.15 0.15 0.13 0.16 0.15 0.14 0.15 0.08 0.04 0.04 0.03 0.03 0.02 0.01 0.00 0.00 0.00 0.00 0.00 0.00
0.00 0.00 0.00 0.01 0.01 0.02 0.02 0.01 0.03 0.09 0.24 0.29 0.35 0.31 0.22 0.29 0.33 0.33 0.27 0.22 0.18 0.11 0.13 0.19 0.19 0.21 0.25 0.31 0.34 0.31 0.29 0.26 0.28 0.34 0.39 0.37 0.27 0.20 0.18 0.17 0.14 0.10 0.08 0.07 0.04 0.03 0.01 0.00 0.00 0.00 0.00 0.00 0.00 0.00
0.00 0.00 0.00 0.00 0.00 0.00 0.00 0.00 0.00 0.03 0.17 0.25 0.28 0.20 0.15 0.24 0.17 0.08 0.06 0.05 0.05 0.04 0.10 0.19 0.34 0.40 0.45 0.49 0.46 0.38 0.33 0.30 0.20 0.17 0.27 0.33 0.30 0.19 0.17 0.11 0.09 0.07 0.06 0.06 0.05 0.04 0.02 0.01 0.00 0.00 0.00 0.00 0.00 0.00
0.00 0.00 0.00 0.00 0.00 0.00 0.00 0.00 0.02 0.04 0.08 0.14 0.17 0.06 0.15 0.08 0.03 0.01 0.00 0.00 0.01 0.12 0.29 0.40 0.42 0.47 0.52 0.48 0.38 0.26 0.24 0.18 0.15 0.07 0.09 0.15 0.20 0.12 0.12 0.12 0.08 0.06 0.05 0.06 0.05 0.05 0.04 0.03 0.02 0.01 0.00 0.00 0.00 0.00
0.00 0.00 0.00 0.00 0.00 0.00 0.01 0.00 0.02 0.03 0.02 0.08 0.05 0.03 0.08 0.07 0.04 0.01 0.00 0.01 0.13 0.29 0.36 0.39 0.35 0.33 0.30 0.30 0.34 0.28 0.29 0.15 0.12 0.10 0.09 0.07 0.09 0.10 0.12 0.14 0.08 0.09 0.10 0.10 0.08 0.07 0.06 0.04 0.03 0.01 0.01 0.00 0.00 0.00
0.00 0.00 0.00 0.00 0.00 0.00 0.00 0.00 0.00 0.01 0.01 0.02 0.01 0.01 0.03 0.04 0.05 0.01 0.03 0.08 0.22 0.36 0.34 0.26 0.27 0.25 0.24 0.26 0.15 0.16 0.21 0.15 0.14 0.15 0.15 0.12 0.12 0.13 0.11 0.12 0.11 0.09 0.09 0.09 0.07 0.06 0.05 0.03 0.02 0.01 0.00 0.00 0.00 0.00
0.00 0.00 0.00 0.00 0.00 0.00 0.00 0.00 0.00 0.01 0.01 0.02 0.01 0.03 0.06 0.05 0.01 0.01 0.05 0.12 0.23 0.18 0.16 0.23 0.22 0.19 0.14 0.10 0.12 0.15 0.19 0.10 0.09 0.10 0.12 0.05 0.05 0.09 0.07 0.07 0.06 0.06 0.06 0.05 0.03 0.01 0.01 0.00 0.00 0.00 0.00 0.00 0.00 0.00
0.00 0.00 0.00 0.00 0.00 0.00 0.00 0.01 0.01 0.01 0.01 0.01 0.02 0.04 0.04 0.02 0.02 0.03 0.06 0.15 0.11 0.10 0.14 0.16 0.12 0.12 0.13 0.16 0.16 0.14 0.12 0.08 0.06 0.06 0.10 0.06 0.05 0.05 0.04 0.04 0.03 0.02 0.01 0.00 0.00 0.00 0.00 0.00 0.00 0.00 0.00 0.00 0.00 0.01
0.01 0.01 0.01 0.02 0.01 0.01 0.01 0.01 0.01 0.02 0.02 0.03 0.04 0.05 0.03 0.05 0.04 0.07 0.10 0.16 0.12 0.14 0.15 0.17 0.15 0.09 0.09 0.10 0.09 0.10 0.09 0.08 0.03 0.03 0.06 0.04 0.04 0.03 0.03 0.02 0.02 0.01 0.00 0.00 0.00 0.00 0.00 0.00 0.00 0.00 0.00 0.00 0.01 0.02
0.02 0.02 0.01 0.02 0.02 0.01 0.02 0.02 0.02 0.02 0.03 0.05 0.06 0.06 0.10 0.08 0.07 0.12 0.13 0.12 0.12 0.14 0.13 0.12 0.08 0.06 0.07 0.07 0.06 0.04 0.02 0.01 0.01 0.01 0.01 0.00 0.00 0.00 0.00 0.00 0.00 0.01 0.00 0.00 0.00 0.01 0.01 0.01 0.01 0.01 0.01 0.01 0.01 0.02
0.02 0.01 0.02 0.02 0.01 0.01 0.02 0.02 0.04 0.06 0.06 0.06 0.08 0.04 0.07 0.08 0.12 0.14 0.16 0.18 0.13 0.06 0.03 0.02 0.02 0.01 0.02 0.03 0.04 0.03 0.02 0.01 0.00 0.00 0.00 0.01 0.00 0.00 0.00 0.01 0.01 0.00 0.00 0.01 0.01 0.01 0.01 0.02 0.02 0.02 0.02 0.02 0.01 0.01
0.02 0.01 0.01 0.00 0.01 0.01 0.04 0.05 0.06 0.06 0.06 0.07 0.07 0.05 0.05 0.07 0.14 0.14 0.16 0.12 0.10 0.06 0.04 0.05 0.08 0.05 0.03 0.01 0.00 0.00 0.00 0.00 0.00 0.00 0.00 0.01 0.02 0.01 0.00 0.01 0.01 0.01 0.01 0.01 0.00 0.00 0.01 0.03 0.03 0.02 0.01 0.01 0.01 0.02
0.01 0.02 0.01 0.01 0.02 0.04 0.07 0.04 0.05 0.04 0.01 0.02 0.03 0.03 0.04 0.10 0.16 0.12 0.08 0.06 0.05 0.05 0.05 0.04 0.04 0.03 0.03 0.02 0.01 0.00 0.01 0.00 0.00 0.00 0.00 0.00 0.00 0.01 0.01 0.02 0.01 0.01 0.01 0.01 0.01 0.01 0.00 0.00 0.00 0.00 0.01 0.01 0.02 0.01
0.01 0.01 0.01 0.01 0.04 0.06 0.05 0.04 0.06 0.05 0.03 0.02 0.03 0.02 0.04 0.07 0.08 0.05 0.05 0.07 0.04 0.04 0.03 0.02 0.01 0.00 0.00 0.00 0.00 0.00 0.01 0.01 0.01 0.00 0.00 0.00 0.01 0.01 0.02 0.02 0.01 0.01 0.01 0.01 0.01 0.01 0.01 0.01 0.01 0.01 0.01 0.01 0.01 0.01
0.01 0.01 0.00 0.01 0.04 0.04 0.04 0.07 0.08 0.09 0.07 0.04 0.04 0.03 0.06 0.05 0.04 0.04 0.04 0.04 0.02 0.01 0.01 0.01 0.01 0.02 0.01 0.01 0.01 0.01 0.00 0.01 0.00 0.00 0.01 0.01 0.01 0.01 0.01 0.01 0.01 0.02 0.02 0.01 0.01 0.01 0.01 0.01 0.01 0.01 0.01 0.01 0.01 0.00
0.01 0.00 0.00 0.01 0.03 0.04 0.03 0.05 0.03 0.03 0.03 0.03 0.04 0.04 0.05 0.03 0.03 0.06 0.06 0.03 0.02 0.01 0.01 0.01 0.02 0.03 0.02 0.00 0.00 0.00 0.00 0.00 0.00 0.00 0.01 0.01 0.01 0.01 0.00 0.01 0.01 0.01 0.01 0.01 0.01 0.01 0.01 0.01 0.01 0.01 0.01 0.00 0.01 0.01

GFSWCAN_prec_precacc24_060.txt.gz
Total_Precipitation_Accumulation
0.21 0.25 0.27 0.25 0.29 0.27 0.30 0.42 0.43 0.47 0.37 0.34 0.34 0.33 0.20 0.17 0.35 0.52 0.48 0.47 1.06 0.40 0.13 0.20 0.16 0.04 0.01 0.19 0.36 0.15 0.14 0.14 0.15 0.15 0.08 0.03 0.01 0.00 0.00 0.00 0.00 0.00 0.00 0.00 0.00 0.00 0.00 0.00 0.00 0.00 0.00 0.00 0.00 0.00
0.30 0.27 0.27 0.27 0.26 0.25 0.30 0.38 0.38 0.42 0.31 0.28 0.31 0.33 0.24 0.20 0.44 0.57 0.47 0.49 1.03 0.74 0.31 0.15 0.17 0.08 0.01 0.06 0.27 0.05 0.07 0.07 0.06 0.07 0.05 0.05 0.01 0.00 0.00 0.00 0.00 0.01 0.00 0.00 0.00 0.00 0.00 0.00 0.00 0.00 0.00 0.00 0.00 0.00
0.34 0.36 0.36 0.35 0.32 0.31 0.37 0.42 0.39 0.40 0.33 0.31 0.34 0.37 0.24 0.29 0.60 0.59 0.45 0.53 1.43 1.23 0.51 0.20 0.19 0.21 0.10 0.05 0.13 0.10 0.02 0.02 0.05 0.10 0.10 0.07 0.03 0.01 0.00 0.00 0.00 0.00 0.01 0.00 0.00 0.00 0.00 0.00 0.00 0.00 0.00 0.00 0.00 0.00
0.28 0.32 0.29 0.27 0.29 0.30 0.33 0.39 0.33 0.34 0.37 0.37 0.45 0.37 0.28 0.54 0.61 0.52 0.64 0.81 1.19 1.20 0.89 0.31 0.16 0.18 0.13 0.07 0.04 0.05 0.03 0.01 0.05 0.10 0.15 0.10 0.08 0.03 0.01 0.00 0.00 0.00 0.01 0.00 0.00 0.00 0.00 0.00 0.00 0.00 0.00 0.00 0.00 0.00
0.14 0.14 0.15 0.15 0.16 0.18 0.23 0.28 0.27 0.31 0.38 0.36 0.54 0.32 0.48 0.61 0.55 0.63 0.83 1.07 0.89 0.97 0.88 0.48 0.28 0.18 0.22 0.16 0.10 0.06 0.07 0.06 0.06 0.06 0.07 0.04 0.02 0.03 0.02 0.01 0.00 0.00 0.00 0.00 0.00 0.01 0.00 0.00 0.00 0.00 0.00 0.00 0.00 0.00
0.16 0.13 0.12 0.11 0.12 0.16 0.21 0.29 0.31 0.29 0.24 0.38 0.42 0.44 0.57 0.57 0.66 0.83 0.92 0.74 0.98 0.79 0.62 0.75 0.40 0.31 0.29 0.38 0.26 0.25 0.16 0.12 0.11 0.04 0.02 0.01 0.00 0.02 0.01 0.00 0.00 0.00 0.00 0.00 0.00 0.00 0.00 0.00 0.00 0.00 0.00 0.00 0.00 0.00
0.34 0.29 0.21 0.14 0.16 0.21 0.26 0.30 0.29 0.23 0.28 0.40 0.29 0.53 0.58 0.54 0.55 0.72 0.69 0.65 0.81 0.73 0.59 0.47 0.62 0.43 0.55 0.42 0.52 0.23 0.26 0.19 0.18 0.07 0.02 0.00 0.00 0.01 0.00 0.00 0.00 0.00 0.00 0.00 0.00 0.00 0.00 0.00 0.00 0.00 0.00 0.00 0.00 0.00
0.42 0.32 0.22 0.19 0.21 0.19 0.21 0.24 0.26 0.28 0.32 0.22 0.37 0.58 0.52 0.53 0.65 0.58 0.33 0.40 0.73 0.79 0.57 0.32 0.35 0.54 0.72 0.56 0.39 0.37 0.34 0.30 0.20 0.18 0.06 0.01 0.01 0.00 0.00 0.00 0.00 0.00 0.00 0.00 0.00 0.00 0.00 0.00 0.00 0.00 0.00 0.00 0.00 0.00
0.22 0.16 0.15 0.16 0.18 0.18 0.23 0.24 0.20 0.16 0.15 0.29 0.57 0.70 0.91 0.89 1.02 0.55 0.42 0.54 0.76 0.82 0.61 0.21 0.22 0.47 0.60 0.70 0.33 0.31 0.51 0.64 0.28 0.14 0.12 0.09 0.04 0.01 0.00 0.00 0.00 0.00 0.00 0.00 0.00 0.00 0.00 0.00 0.00 0.00 0.00 0.00 0.00 0.00
0.16 0.15 0.14 0.14 0.16 0.17 0.18 0.18 0.15 0.14 0.26 0.53 0.89 1.12 1.11 0.74 0.60 0.70 0.96 0.92 0.54 0.41 0.29 0.18 0.16 0.28 0.51 0.34 0.48 0.35 0.27 0.62 0.75 0.33 0.17 0.16 0.08 0.01 0.00 0.00 0.00 0.00 0.00 0.00 0.00 0.00 0.00 0.00 0.00 0.00 0.00 0.00 0.00 0.00
0.13 0.13 0.12 0.15 0.15 0.15 0.17 0.18 0.24 0.32 0.51 0.82 1.06 1.02 0.59 0.53 0.90 0.94 0.81 0.55 0.31 0.15 0.07 0.13 0.15 0.23 0.24 0.17 0.29 0.34 0.38 0.31 0.30 0.41 0.29 0.23 0.11 0.02 0.01 0.01 0.01 0.01 0.00 0.00 0.00 0.00 0.00 0.00 0.00 0.00 0.00 0.00 0.00 0.00
0.14 0.13 0.15 0.13 0.05 0.06 0.12 0.15 0.19 0.29 0.48 0.71 0.84 0.60 0.60 0.62 0.57 0.57 0.34 0.25 0.11 0.04 0.03 0.11 0.08 0.08 0.26 0.26 0.24 0.32 0.28 0.28 0.21 0.10 0.13 0.10 0.05 0.04 0.07 0.07 0.06 0.06 0.06 0.04 0.02 0.01 0.01 0.01 0.01 0.01 0.02 0.03 0.04 0.06
0.13 0.14 0.16 0.11 0.05 0.05 0.09 0.22 0.35 0.47 0.90 0.86 0.50 0.40 0.49 0.46 0.43 0.36 0.10 0.07 0.05 0.02 0.02 0.06 0.08 0.05 0.07 0.25 0.34 0.24 0.25 0.18 0.12 0.14 0.12 0.04 0.01 0.02 0.04 0.08 0.12 0.15 0.16 0.17 0.17 0.17 0.16 0.16 0.15 0.14 0.19 0.27 0.33 0.37
0.16 0.12 0.11 0.15 0.20 0.24 0.27 0.31 0.41 0.92 0.99 0.50 0.38 0.37 0.40 0.34 0.31 0.22 0.06 0.03 0.04 0.03 0.02 0.03 0.05 0.05 0.03 0.08 0.21 0.25 0.17 0.14 0.11 0.09 0.05 0.04 0.06 0.05 0.03 0.02 0.02 0.04 0.07 0.15 0.26 0.29 0.28 0.31 0.40 0.45 0.42 0.37 0.29 0.22
0.15 0.15 0.18 0.26 0.25 0.28 0.34 0.46 0.61 0.71 0.74 0.67 0.59 0.41 0.26 0.27 0.27 0.20 0.10 0.08 0.09 0.05 0.03 0.03 0.08 0.09 0.09 0.12 0.13 0.09 0.10 0.10 0.07 0.04 0.03 0.02 0.02 0.03 0.02 0.02 0.05 0.09 0.15 0.21 0.25 0.26 0.27 0.25 0.23 0.25 0.22 0.17 0.10 0.07
0.22 0.18 0.19 0.26 0.29 0.35 0.46 0.52 0.49 0.50 0.58 0.48 0.36 0.28 0.25 0.26 0.25 0.20 0.17 0.17 0.16 0.14 0.12 0.14 0.20 0.27 0.25 0.12 0.08 0.07 0.06 0.07 0.06 0.07 0.06 0.04 0.07 0.10 0.10 0.12 0.19 0.26 0.29 0.25 0.22 0.17 0.15 0.13 0.07 0.05 0.05 0.02 0.02 0.02
0.27 0.19 0.14 0.16 0.21 0.24 0.28 0.31 0.29 0.31 0.34 0.28 0.40 0.45 0.38 0.31 0.27 0.27 0.27 0.24 0.19 0.19 0.20 0.17 0.14 0.20 0.23 0.16 0.13 0.13 0.16 0.16 0.15 0.13 0.12 0.13 0.14 0.17 0.22 0.28 0.31 0.32 0.26 0.15 0.10 0.09 0.07 0.04 0.01 0.01 0.01 0.01 0.01 0.01
0.46 0.34 0.28 0.29 0.22 0.23 0.31 0.35 0.21 0.09 0.15 0.32 0.36 0.52 0.45 0.55 0.46 0.36 0.35 0.30 0.20 0.19 0.18 0.21 0.17 0.16 0.19 0.17 0.18 0.25 0.31 0.37 0.36 0.36 0.35 0.34 0.31 0.35 0.35 0.33 0.35 0.26 0.13 0.12 0.10 0.12 0.10 0.08 0.06 0.06 0.04 0.02 0.00 0.00
0.19 0.21 0.24 0.22 0.16 0.16 0.16 0.08 0.06 0.13 0.32 0.35 0.41 0.36 0.27 0.34 0.42 0.45 0.37 0.32 0.25 0.15 0.15 0.23 0.23 0.25 0.31 0.37 0.43 0.41 0.45 0.42 0.45 0.54 0.57 0.55 0.46 0.39 0.40 0.37 0.30 0.22 0.17 0.17 0.14 0.11 0.10 0.07 0.07 0.05 0.04 0.02 0.01 0.00
0.07 0.09 0.10 0.08 0.04 0.00 0.00 0.01 0.00 0.06 0.23 0.31 0.34 0.22 0.16 0.28 0.20 0.09 0.07 0.06 0.05 0.04 0.11 0.23 0.42 0.50 0.56 0.60 0.60 0.55 0.52 0.48 0.38 0.30 0.41 0.50 0.53 0.36 0.35 0.25 0.21 0.19 0.14 0.14 0.13 0.12 0.08 0.07 0.06 0.04 0.03 0.02 0.01 0.01
0.03 0.05 0.03 0.00 0.00 0.00 0.00 0.01 0.03 0.06 0.10 0.16 0.18 0.06 0.15 0.08 0.03 0.01 0.00 0.00 0.01 0.15 0.37 0.53 0.55 0.59 0.67 0.64 0.54 0.44 0.43 0.36 0.32 0.20 0.23 0.29 0.38 0.23 0.23 0.23 0.17 0.14 0.11 0.12 0.10 0.11 0.08 0.08 0.08 0.05 0.03 0.03 0.02 0.02
0.00 0.00 0.00 0.00 0.00 0.00 0.01 0.01 0.03 0.04 0.03 0.09 0.06 0.04 0.07 0.06 0.03 0.01 0.00 0.02 0.16 0.38 0.49 0.52 0.49 0.48 0.45 0.46 0.53 0.46 0.50 0.31 0.26 0.21 0.22 0.18 0.18 0.19 0.20 0.23 0.14 0.14 0.13 0.14 0.11 0.10 0.08 0.06 0.05 0.03 0.02 0.02 0.02 0.01
0.00 0.00 0.00 0.00 0.00 0.00 0.00 0.00 0.00 0.01 0.01 0.01 0.01 0.01 0.03 0.04 0.04 0.01 0.02 0.09 0.25 0.43 0.42 0.34 0.37 0.35 0.35 0.43 0.28 0.29 0.37 0.27 0.23 0.24 0.23 0.19 0.17 0.18 0.15 0.15 0.13 0.10 0.10 0.11 0.08 0.07 0.05 0.04 0.02 0.01 0.00 0.00 0.00 0.00
0.00 0.00 0.00 0.00 0.00 0.00 0.00 0.00 0.00 0.01 0.01 0.01 0.01 0.04 0.06 0.04 0.01 0.01 0.05 0.12 0.25 0.21 0.17 0.25 0.24 0.23 0.20 0.16 0.18 0.24 0.31 0.18 0.15 0.16 0.17 0.07 0.06 0.10 0.07 0.07 0.06 0.06 0.06 0.05 0.03 0.01 0.01 0.00 0.00 0.00 0.00 0.00 0.00 0.00
0.00 0.00 0.00 0.00 0.00 0.00 0.00 0.01 0.01 0.01 0.01 0.01 0.02 0.05 0.03 0.02 0.01 0.03 0.06 0.15 0.11 0.10 0.14 0.14 0.10 0.11 0.14 0.17 0.19 0.19 0.16 0.09 0.06 0.07 0.11 0.06 0.05 0.05 0.04 0.04 0.03 0.02 0.01 0.00 0.00 0.00 0.00 0.00 0.00 0.00 0.00 0.00 0.00 0.01
0.01 0.01 0.01 0.02 0.01 0.01 0.01 0.02 0.02 0.02 0.02 0.03 0.04 0.04 0.02 0.03 0.02 0.06 0.09 0.14 0.10 0.11 0.11 0.13 0.12 0.06 0.06 0.06 0.07 0.08 0.09 0.08 0.03 0.03 0.06 0.04 0.04 0.03 0.03 0.02 0.02 0.01 0.00 0.00 0.00 0.00 0.00 0.00 0.00 0.00 0.00 0.00 0.01 0.01
0.02 0.01 0.00 0.02 0.02 0.01 0.01 0.01 0.01 0.01 0.02 0.04 0.04 0.04 0.07 0.04 0.04 0.11 0.10 0.09 0.07 0.09 0.07 0.06 0.03 0.03 0.04 0.05 0.05 0.04 0.02 0.01 0.01 0.01 0.01 0.00 0.00 0.00 0.00 0.00 0.01 0.01 0.01 0.00 0.00 0.01 0.01 0.01 0.01 0.01 0.01 0.01 0.01 0.02
0.02 0.01 0.02 0.01 0.01 0.01 0.01 0.02 0.02 0.04 0.04 0.04 0.06 0.02 0.03 0.04 0.09 0.13 0.15 0.16 0.10 0.04 0.02 0.01 0.01 0.01 0.02 0.03 0.04 0.03 0.02 0.01 0.00 0.00 0.00 0.01 0.00 0.00 0.00 0.01 0.01 0.00 0.00 0.01 0.01 0.01 0.01 0.02 0.02 0.02 0.02 0.01 0.01 0.01
0.01 0.01 0.01 0.00 0.00 0.00 0.03 0.04 0.04 0.04 0.04 0.03 0.04 0.04 0.05 0.07 0.15 0.15 0.16 0.12 0.09 0.05 0.04 0.03 0.06 0.04 0.02 0.00 0.00 0.00 0.00 0.00 0.00 0.00 0.00 0.01 0.02 0.01 0.00 0.01 0.01 0.01 0.01 0.01 0.00 0.00 0.01 0.03 0.03 0.01 0.01 0.01 0.01 0.03
0.01 0.01 0.01 0.00 0.02 0.04 0.06 0.04 0.04 0.03 0.01 0.01 0.02 0.03 0.04 0.10 0.16 0.12 0.07 0.05 0.04 0.04 0.04 0.03 0.03 0.02 0.03 0.02 0.01 0.00 0.01 0.00 0.00 0.00 0.00 0.00 0.01 0.01 0.01 0.02 0.01 0.01 0.02 0.01 0.01 0.01 0.00 0.00 0.00 0.00 0.01 0.01 0.02 0.01
0.01 0.01 0.00 0.01 0.04 0.05 0.04 0.03 0.04 0.02 0.01 0.01 0.02 0.02 0.04 0.07 0.07 0.04 0.04 0.06 0.03 0.03 0.03 0.02 0.01 0.00 0.00 0.00 0.00 0.00 0.01 0.01 0.01 0.00 0.00 0.00 0.01 0.01 0.02 0.02 0.01 0.01 0.01 0.01 0.01 0.01 0.01 0.01 0.01 0.01 0.01 0.01 0.01 0.01
0.01 0.01 0.00 0.01 0.04 0.04 0.04 0.08 0.07 0.09 0.05 0.03 0.04 0.03 0.05 0.04 0.03 0.03 0.03 0.04 0.02 0.01 0.01 0.01 0.02 0.02 0.01 0.01 0.01 0.01 0.00 0.01 0.01 0.00 0.01 0.01 0.01 0.01 0.01 0.01 0.01 0.01 0.02 0.01 0.01 0.01 0.01 0.01 0.01 0.01 0.01 0.01 0.01 0.00
0.01 0.00 0.00 0.01 0.03 0.05 0.04 0.06 0.04 0.03 0.03 0.02 0.03 0.03 0.04 0.02 0.02 0.05 0.05 0.02 0.01 0.01 0.01 0.02 0.02 0.03 0.02 0.00 0.00 0.00 0.00 0.00 0.00 0.00 0.01 0.01 0.01 0.00 0.00 0.00 0.01 0.01 0.01 0.01 0.01 0.01 0.01 0.01 0.01 0.01 0.01 0.00 0.01 0.01